ECMWFFLT2_250_spd_000.txt.gz
Wind_Speed
42 39 40 39 30 16 12 16 18 20 25 29 29 25 22 21 22 19 17 17 19 20 23 27 30 29 29 30 30 31 33 35 36 39 40 41 43 47 47 44 45 45 43 34 28 34 39 38 38 36 35 34 32 29 28 27 27 27 27 27 28 28
38 36 34 34 27 16 15 20 21 19 20 24 27 24 20 20 21 19 17 16 17 18 21 26 29 29 30 31 31 31 34 36 37 39 39 40 42 47 50 47 47 47 44 36 30 33 39 40 39 37 35 35 34 32 30 28 28 28 27 27 27 28
34 32 30 32 29 22 20 21 27 27 25 25 27 25 21 19 19 18 17 15 15 16 19 23 26 27 28 29 30 31 34 36 38 40 40 40 43 47 51 50 48 49 46 38 32 33 38 40 38 35 34 35 36 34 32 30 29 29 28 27 27 29
31 28 26 30 31 29 27 22 26 28 26 26 25 24 23 19 18 18 17 16 14 15 17 20 23 24 24 25 27 29 33 35 37 40 40 41 45 47 51 51 50 50 47 41 34 33 37 39 38 35 34 35 36 34 33 32 31 31 30 28 27 27
28 26 25 31 32 32 34 29 25 24 24 24 21 21 24 21 18 18 17 16 14 13 15 17 20 21 20 21 23 26 31 34 37 39 40 43 47 48 50 51 51 51 49 43 36 34 38 39 38 37 36 36 36 34 33 33 32 31 31 30 28 26
27 26 25 31 35 34 37 36 29 26 27 26 22 22 25 23 19 18 18 17 15 13 13 15 17 18 19 20 21 23 28 32 35 37 40 45 48 48 49 51 51 51 49 45 38 36 38 39 38 37 37 37 35 34 33 34 33 31 30 29 28 28
27 27 27 31 37 37 37 37 34 31 30 28 28 27 26 24 21 19 17 17 16 13 13 14 14 15 16 18 19 21 25 29 33 36 40 46 49 48 48 50 51 50 48 44 38 36 38 38 38 38 38 37 35 34 34 35 33 31 30 30 30 30
29 29 30 32 37 40 39 38 37 35 33 32 31 30 27 24 22 20 18 17 16 14 13 13 13 13 13 14 16 19 22 26 30 34 38 44 49 49 47 49 51 50 46 41 38 36 36 37 38 39 40 40 37 34 35 36 34 33 31 31 32 32
31 31 32 34 37 41 42 40 39 37 35 32 31 31 29 25 22 21 21 21 18 15 14 14 14 13 12 12 13 17 20 24 28 32 36 41 47 49 48 49 50 49 45 41 39 37 36 35 38 41 42 43 40 35 36 37 36 35 33 31 32 33
32 32 33 35 37 40 42 41 40 38 35 33 31 29 29 26 24 23 23 23 21 18 17 16 15 14 13 11 11 14 18 22 25 29 34 39 45 49 49 49 51 50 47 44 41 39 37 34 35 41 45 46 43 38 36 36 36 36 34 31 31 32
33 34 34 35 37 40 42 43 42 40 36 35 32 28 28 27 26 26 25 24 24 23 21 19 17 16 14 13 12 13 16 20 23 26 31 37 43 48 50 51 52 52 49 47 45 42 39 35 33 37 45 48 45 40 37 37 36 36 35 33 33 32
34 35 35 36 37 39 42 44 44 42 39 37 34 30 29 28 29 30 28 26 25 25 23 20 18 17 16 15 14 14 14 17 21 24 28 34 42 47 51 53 53 53 51 50 49 45 41 39 35 34 40 46 47 42 38 37 37 36 36 35 35 33
35 36 36 37 37 38 41 43 44 43 40 37 36 34 33 31 31 31 29 28 26 25 23 20 19 19 18 16 16 16 15 16 20 23 26 31 39 46 51 55 55 53 53 52 51 48 44 42 39 36 37 41 45 45 41 39 37 36 37 37 36 35
35 37 37 38 38 39 40 42 43 44 41 38 37 37 37 36 35 33 30 28 27 27 26 22 20 21 20 19 18 19 18 17 19 22 25 29 35 43 49 53 56 56 54 54 53 51 47 44 42 39 38 39 42 44 43 41 39 37 37 38 38 36
36 37 38 39 39 40 40 41 42 43 42 40 38 39 41 39 39 40 36 31 30 32 30 25 23 23 23 22 21 22 22 20 20 21 24 27 32 39 45 50 54 56 56 55 55 53 50 45 43 42 41 40 40 43 44 43 42 40 38 38 39 37
38 38 39 40 40 41 41 42 43 43 43 41 40 41 43 41 40 44 44 38 34 34 34 30 27 27 25 25 25 24 24 23 23 23 23 26 30 35 41 48 51 53 55 56 56 56 53 49 44 44 44 43 41 41 43 44 45 43 41 40 39 38
39 40 40 41 42 42 43 44 44 44 44 43 42 41 43 42 41 43 47 45 39 35 36 35 32 30 28 28 29 27 26 25 25 26 25 26 29 32 37 44 49 52 54 55 57 58 57 54 48 45 45 46 45 43 42 43 44 44 44 42 41 40
41 41 42 43 43 44 44 45 46 46 46 46 45 43 44 44 43 43 46 49 46 39 38 40 37 34 31 31 32 31 29 28 27 28 29 28 28 31 35 40 46 51 53 55 57 59 59 57 53 48 45 47 49 48 46 43 41 44 46 45 45 43
42 43 44 44 45 46 46 47 47 48 48 48 47 46 46 46 46 45 45 48 51 44 40 43 42 38 33 32 33 34 33 32 31 31 31 30 29 30 33 37 42 47 52 54 56 59 60 59 57 53 49 47 49 51 51 47 42 41 44 45 46 46
45 45 45 46 47 47 48 48 49 49 50 50 50 49 49 49 49 48 46 47 51 48 41 42 46 44 38 34 32 35 37 35 34 34 33 32 32 31 31 34 38 43 48 52 55 57 59 59 60 58 53 49 50 52 54 53 48 43 42 43 46 47
48 48 48 48 49 49 49 50 51 52 52 52 52 52 52 52 52 51 50 47 49 50 45 42 46 49 46 39 34 34 40 39 37 37 36 35 34 32 31 31 34 38 44 49 53 56 58 59 60 60 58 54 52 52 54 55 54 50 47 45 47 48
50 50 50 51 51 52 52 52 53 54 54 55 55 55 55 55 54 54 53 51 49 51 50 46 46 50 51 46 41 41 43 40 39 40 40 38 36 34 34 33 33 35 40 45 48 52 55 57 59 61 61 58 54 52 53 55 56 55 53 50 48 48
52 52 52 53 54 54 55 55 55 56 56 57 57 57 58 58 57 57 56 54 52 52 52 51 49 51 53 52 49 47 46 43 41 43 42 41 39 37 36 35 34 34 37 40 43 47 51 55 59 62 62 60 57 54 53 54 55 56 56 55 52 49
54 54 55 55 55 56 57 57 58 58 58 59 59 60 60 60 60 60 59 58 56 55 54 54 53 53 56 57 55 53 51 49 47 46 44 43 42 40 38 38 36 34 33 36 39 42 46 50 54 59 62 62 60 58 57 56 56 56 56 56 55 53
56 56 57 57 57 57 58 58 59 60 60 61 61 62 63 63 62 62 62 61 61 59 58 57 57 56 57 59 60 58 57 55 53 52 49 45 44 43 41 40 39 37 34 34 35 37 40 44 49 53 59 62 61 60 60 60 58 56 55 56 56 55
59 59 59 59 59 59 59 59 60 60 61 62 63 64 64 65 65 65 65 65 65 64 62 61 60 60 59 60 61 62 61 60 58 57 53 48 46 46 43 41 41 41 39 36 34 34 36 41 44 48 53 58 60 61 61 60 59 57 56 55 55 56
61 61 61 61 61 62 62 61 61 61 62 63 64 65 66 66 67 67 68 68 68 68 67 66 65 63 62 62 62 62 63 62 61 59 57 52 48 48 47 46 45 44 43 41 37 35 36 37 40 44 49 53 56 59 60 60 60 60 59 57 56 56
62 62 63 63 63 64 64 64 64 63 64 64 65 65 66 67 68 69 70 71 71 72 71 70 70 68 66 65 64 64 63 63 63 62 60 57 53 52 52 51 49 48 46 44 41 40 39 37 38 41 45 48 52 55 57 58 60 60 60 59 57 56
62 63 64 64 65 65 66 66 66 66 66 67 67 67 67 67 69 70 72 73 74 75 75 74 74 73 71 69 68 67 66 66 65 64 63 61 59 57 57 55 53 52 51 48 46 44 42 40 40 40 41 44 48 51 53 55 57 59 59 59 57 57
63 64 65 65 66 66 67 67 68 68 69 69 70 70 70 69 70 70 72 74 75 76 77 78 77 77 76 74 73 71 70 69 68 67 66 65 64 63 62 60 58 55 54 53 51 48 46 45 44 41 40 39 41 46 50 52 54 57 59 59 59 59
64 65 67 67 67 67 67 67 68 68 69 70 71 72 72 72 72 72 72 74 76 77 79 80 81 81 80 79 78 76 74 72 71 70 68 68 67 67 66 64 61 59 58 56 54 53 52 50 46 44 43 40 38 39 44 48 51 54 56 58 60 60
65 66 68 68 68 67 68 68 68 68 69 70 71 72 73 73 73 73 74 75 76 77 78 80 82 83 84 83 82 81 79 77 75 73 72 71 70 70 70 68 65 63 62 60 57 57 57 54 51 49 48 46 43 39 39 42 46 50 52 55 58 59
65 66 68 68 68 68 69 69 69 69 69 70 70 71 73 74 74 74 75 76 77 77 78 80 82 84 86 86 86 85 83 81 80 78 76 75 74 72 72 71 69 68 68 65 61 59 59 58 57 55 53 52 49 44 41 40 42 45 49 52 54 56
66 66 67 68 68 68 69 70 71 71 71 71 72 72 73 74 75 75 75 76 77 78 79 80 82 84 86 88 88 88 87 86 84 82 81 79 78 76 74 72 72 72 72 69 65 62 62 62 62 60 58 56 52 49 45 42 40 42 45 48 50 53
68 68 68 68 68 68 69 70 71 72 73 73 74 74 75 76 76 77 77 78 78 79 80 81 82 84 85 87 89 90 90 89 88 86 85 83 82 80 77 75 74 74 75 73 69 67 65 65 66 65 61 59 56 53 48 45 43 42 43 45 47 49
71 70 70 70 70 70 70 71 72 73 74 75 75 76 77 78 78 79 79 80 81 82 82 82 82 84 85 87 88 90 92 92 92 90 89 88 86 84 81 79 76 74 75 75 72 70 68 68 69 67 63 60 59 56 52 49 47 45 44 44 45 46
71 71 72 72 72 71 72 72 73 73 74 75 75 77 78 80 80 80 80 81 83 84 85 84 84 84 85 87 88 90 91 93 94 93 92 91 89 88 85 82 80 77 75 76 75 72 71 70 70 69 66 63 60 58 56 53 51 48 46 45 44 45

ECMWFFLT2_250_spd_006.txt.gz
Wind_Speed
57 55 54 52 51 51 51 50 50 52 54 56 56 53 50 47 46 46 43 38 34 31 28 26 25 25 24 24 24 25 27 29 30 30 30 30 31 32 36 41 44 48 51 46 42 41 42 42 37 32 26 21 27 33 33 33 33 32 30 29 30 29
55 54 52 51 49 49 48 47 48 49 51 51 49 47 44 42 41 42 39 35 31 29 28 25 25 25 24 24 24 25 27 29 30 29 29 29 30 31 35 41 44 47 52 50 44 41 42 44 40 33 27 21 25 33 34 34 34 33 32 31 31 30
53 52 50 48 47 46 45 45 45 46 46 44 42 41 39 36 35 35 34 32 30 30 28 26 25 25 24 24 25 26 28 29 29 29 28 28 29 30 33 40 46 48 50 50 45 41 41 45 43 36 30 24 25 32 36 35 34 34 33 32 31 31
51 49 48 46 45 44 43 42 42 42 42 40 37 36 35 33 32 32 31 31 30 30 28 26 25 25 25 25 25 27 28 29 29 29 28 28 29 30 32 39 47 50 48 45 43 41 39 42 44 40 34 28 25 29 34 35 35 34 33 33 31 30
48 47 45 44 43 42 41 39 39 40 39 37 34 33 33 33 33 32 32 31 29 28 27 26 26 25 25 26 25 27 28 29 30 30 29 29 29 30 32 38 46 51 47 41 41 43 39 37 42 44 38 32 27 25 29 34 34 33 32 32 32 31
45 44 43 41 40 40 38 37 37 37 37 35 32 30 30 31 33 33 33 31 28 27 26 26 26 26 26 25 25 25 27 29 30 31 31 30 29 29 31 36 44 50 48 42 41 44 42 36 38 44 42 36 30 25 26 31 33 32 31 32 33 33
41 40 39 38 37 37 36 35 35 35 35 33 31 30 28 29 31 33 33 30 27 27 26 27 26 26 25 24 24 24 26 29 30 31 32 31 30 29 31 34 41 49 49 44 40 43 44 38 36 42 45 40 35 30 26 27 29 31 31 32 32 32
38 37 36 36 35 35 34 33 34 34 34 32 31 31 29 27 28 31 32 29 26 27 27 26 26 26 25 24 24 24 25 27 30 31 31 31 30 29 30 33 38 47 51 47 41 41 44 41 38 40 45 44 39 35 31 28 28 29 29 29 30 30
35 34 34 34 33 33 33 33 33 33 33 32 32 34 31 28 27 28 30 29 27 28 27 25 25 25 25 24 24 24 24 25 28 30 29 29 29 29 30 31 35 43 50 50 44 42 43 44 42 41 43 46 43 39 38 35 31 30 29 29 29 29
34 32 32 32 32 33 33 33 33 33 33 33 35 35 31 30 31 31 30 30 29 29 28 24 23 25 23 23 24 23 23 23 25 28 27 26 26 28 29 30 32 39 47 51 47 43 44 45 45 43 43 45 46 44 42 41 38 35 33 31 30 29
33 32 31 32 32 32 33 33 34 33 33 34 36 37 33 32 33 34 32 31 31 30 28 23 21 24 26 25 24 22 21 21 23 25 25 25 24 25 28 29 31 35 43 50 48 44 44 46 46 45 45 44 45 46 45 43 42 40 38 35 32 28
33 31 31 32 32 32 33 34 35 34 34 34 36 38 38 37 34 31 31 32 33 30 29 26 22 25 28 27 25 21 20 20 21 23 24 24 24 25 26 28 30 33 39 46 48 45 44 47 48 47 47 45 43 46 46 43 43 43 42 39 37 33
33 32 31 32 33 33 34 34 35 36 35 35 36 37 40 41 34 28 30 33 33 31 31 30 28 28 29 27 25 22 20 20 20 22 23 24 24 25 26 26 28 31 36 43 47 46 44 47 50 49 48 46 43 43 46 45 42 42 42 41 40 38
33 32 32 33 34 35 35 35 36 37 37 36 36 37 40 43 36 28 31 34 34 33 33 34 34 33 30 28 26 24 22 21 20 21 22 24 25 25 26 26 26 28 32 39 45 47 46 48 51 52 50 49 46 44 45 46 44 42 41 41 41 40
34 33 33 33 34 36 36 37 37 37 38 37 36 37 39 42 39 31 32 35 36 35 35 36 37 36 33 30 27 25 25 23 21 21 21 22 24 25 26 25 25 26 29 35 42 47 48 49 52 53 53 52 51 49 47 46 45 43 41 41 42 41
35 35 35 34 35 36 37 38 38 38 38 38 38 38 38 41 41 36 35 37 38 37 37 38 38 38 36 32 30 28 27 26 23 21 21 21 22 23 24 24 24 25 27 30 37 45 48 50 51 53 54 55 55 54 51 47 46 45 42 41 42 43
36 36 36 36 36 36 37 38 39 39 39 40 39 39 39 40 40 39 38 39 40 39 40 40 40 40 38 36 33 30 28 28 26 25 23 21 21 21 22 23 23 24 25 27 32 39 46 50 51 51 52 54 56 56 55 52 48 46 44 43 43 44
36 37 38 38 38 38 38 39 39 40 40 40 41 40 40 41 40 39 40 41 41 41 42 43 43 42 41 39 36 32 30 29 29 28 27 25 23 22 21 22 22 22 23 25 27 33 40 46 49 49 49 49 52 54 55 54 51 48 47 46 45 45
36 37 38 39 39 39 40 40 40 41 41 41 42 42 41 42 42 40 41 42 43 42 43 44 45 45 43 40 38 35 32 31 32 31 30 29 27 23 21 22 21 22 22 23 25 28 33 39 44 47 47 46 47 49 50 51 52 51 50 49 48 46
38 38 38 39 39 40 40 41 41 41 41 41 42 43 43 43 43 42 42 43 44 44 44 45 45 46 46 42 40 39 36 35 35 34 32 31 30 26 25 25 23 21 22 23 24 26 29 32 38 44 47 47 46 46 46 47 49 52 52 52 52 49
40 40 40 40 40 41 41 41 42 42 42 42 42 43 44 44 44 44 44 44 46 46 45 45 46 47 48 45 43 41 41 40 39 36 34 33 32 30 30 30 26 22 22 24 25 27 28 29 33 38 44 46 47 46 46 46 47 49 52 54 54 53
43 43 42 42 42 43 42 42 42 43 43 43 44 44 44 45 46 46 46 46 47 48 47 47 47 47 48 48 46 43 44 44 42 39 37 35 34 33 33 33 29 25 23 23 24 25 26 29 31 33 36 40 44 47 48 47 46 47 51 54 55 54
45 45 45 45 45 45 44 44 43 43 44 44 45 45 45 46 47 48 48 48 48 49 49 49 49 50 49 49 48 47 46 46 45 43 39 37 37 36 35 34 31 28 26 24 23 23 25 28 28 29 31 35 40 44 46 47 48 49 50 53 55 54
47 47 47 47 47 47 46 46 46 45 45 45 46 46 47 47 48 49 50 50 50 50 51 51 51 52 53 52 50 50 50 49 48 47 44 41 41 39 37 36 35 34 31 29 27 26 27 28 26 26 29 33 36 39 43 46 48 48 49 50 52 53
48 48 49 49 49 49 48 48 48 47 47 46 47 48 48 49 49 50 51 51 52 52 52 53 53 54 55 56 54 52 53 53 51 50 50 48 45 42 41 40 40 39 36 34 32 30 30 29 28 28 30 31 33 37 42 45 46 47 47 48 50 51
50 50 50 50 50 50 50 49 49 49 49 48 48 49 49 50 51 51 52 52 53 54 54 54 55 56 56 58 58 55 53 54 55 54 53 53 51 47 45 44 43 41 39 38 37 35 33 32 32 33 33 34 35 37 40 41 43 46 47 48 49 50
52 52 52 52 52 52 51 51 51 51 51 51 51 51 51 52 52 53 53 54 54 55 56 56 57 58 59 58 60 61 58 55 56 57 56 56 55 53 52 49 46 43 41 41 41 40 38 37 37 38 39 38 38 38 38 37 40 43 44 46 48 48
54 55 55 55 55 55 54 53 53 53 53 53 53 53 53 53 53 54 55 55 56 56 57 58 58 59 61 61 60 62 64 60 57 57 59 58 57 57 57 55 52 49 46 44 44 43 42 42 43 45 45 42 41 40 37 36 37 38 40 43 44 45
57 57 57 57 58 57 57 56 55 55 55 56 56 55 55 55 55 56 56 57 57 58 59 59 60 61 62 64 63 62 64 66 63 59 59 60 59 58 58 57 55 53 51 50 50 49 47 45 47 50 49 44 44 44 41 38 37 36 37 39 40 41
58 59 59 60 60 61 61 60 59 58 58 58 58 58 58 58 58 57 58 58 59 60 60 61 61 62 63 64 66 66 65 66 67 64 62 61 60 59 60 59 57 56 55 55 56 54 51 49 50 51 50 47 47 47 45 42 39 38 37 37 36 37
57 58 60 61 62 63 63 63 63 62 62 61 61 60 60 60 60 60 59 60 60 61 61 62 63 63 64 65 67 68 68 67 68 68 66 64 62 60 61 61 60 59 58 57 57 56 53 52 53 53 52 50 50 50 49 45 42 40 38 37 36 35
56 57 58 60 61 63 64 64 65 65 65 65 64 64 63 62 62 62 62 62 62 62 62 63 64 64 65 66 67 69 70 70 69 69 69 68 65 62 62 63 62 60 60 58 56 55 53 53 54 55 54 52 52 52 52 49 46 42 39 38 37 35
56 57 58 59 60 62 63 63 64 64 65 65 66 66 66 65 65 65 64 64 64 64 64 64 65 66 66 67 69 70 71 72 72 72 72 72 70 66 64 65 65 62 60 59 57 55 56 55 55 57 57 54 54 54 55 53 49 45 43 41 39 37
57 58 59 60 61 61 62 62 62 63 63 64 64 65 66 66 67 67 67 67 66 66 66 66 66 67 68 69 70 71 72 73 74 75 74 74 74 72 68 66 68 66 62 61 59 58 59 59 59 61 60 57 56 57 57 55 52 48 46 45 43 41
59 59 61 62 62 62 62 62 62 62 62 63 63 63 64 65 65 66 67 68 68 68 68 68 68 68 68 70 71 72 73 74 76 77 77 77 77 77 74 70 70 71 68 65 64 63 62 62 63 65 64 59 58 59 58 57 56 53 50 49 47 46
61 61 62 63 64 64 63 63 63 63 63 64 64 63 64 64 65 65 66 67 68 69 70 70 70 70 70 71 72 73 74 75 77 77 78 79 79 80 79 76 73 73 74 71 68 67 67 66 66 67 67 63 61 61 60 60 59 57 55 53 51 50
63 63 64 64 64 65 65 64 64 64 65 65 65 65 65 65 66 66 66 67 68 69 70 71 72 72 72 72 73 74 75 76 77 78 79 80 81 81 82 81 79 76 77 77 74 72 71 72 71 71 70 68 64 63 63 64 63 61 60 59 57 54

ECMWFFLT2_250_spd_009.txt.gz
Wind_Speed
69 67 64 58 55 55 54 51 50 49 50 51 49 48 49 50 52 52 53 53 52 50 47 45 44 44 39 35 36 36 33 31 31 30 30 29 27 26 26 25 27 31 35 40 44 43 42 43 40 34 37 43 35 25 22 27 34 34 31 30 30 30
66 65 62 60 56 51 51 50 46 46 48 48 45 44 46 46 47 49 52 54 54 53 50 47 46 44 40 38 38 35 32 30 29 29 30 29 25 24 25 25 27 31 36 41 44 44 44 42 42 36 36 42 37 30 27 24 31 38 36 31 32 31
63 62 60 58 56 51 51 50 46 45 46 45 41 39 40 40 42 45 47 48 49 50 48 44 42 41 39 38 35 32 30 29 28 29 30 28 25 24 24 25 27 32 36 41 44 46 45 42 44 40 36 41 39 33 32 26 25 34 39 33 31 31
60 59 58 57 55 52 50 48 46 45 43 41 37 35 36 37 40 41 40 39 39 39 38 35 35 36 36 34 32 31 30 28 29 29 29 28 25 24 24 25 27 32 37 41 45 47 47 43 44 42 37 40 41 36 35 28 23 29 38 35 30 30
58 57 56 54 53 50 48 46 44 40 38 37 35 34 34 33 35 34 32 32 31 30 30 28 30 33 32 31 31 31 29 29 29 29 29 28 27 25 24 26 27 32 37 41 45 48 48 45 44 42 38 40 41 39 36 30 25 27 32 33 29 28
55 54 53 51 50 48 46 43 41 38 34 32 32 30 28 28 30 31 30 29 26 23 25 26 28 31 31 30 28 28 28 28 29 29 29 28 28 26 25 26 27 30 35 40 45 48 49 46 43 41 38 42 42 40 37 31 29 30 32 36 34 31
52 50 50 48 47 46 43 42 39 36 33 32 30 24 23 27 30 33 31 26 22 20 22 24 28 29 27 25 23 25 28 29 29 28 28 28 28 27 26 26 27 29 33 39 45 48 50 45 40 38 35 40 44 42 39 34 32 32 32 36 35 31
49 47 46 46 44 44 42 40 37 33 32 33 31 23 21 27 32 34 31 25 21 19 19 20 24 26 23 24 23 26 30 29 28 27 28 29 28 28 27 27 27 28 30 35 42 47 50 44 36 36 34 35 41 43 42 37 33 31 31 33 33 32
47 45 44 43 42 42 41 39 36 33 32 32 32 29 26 28 29 29 26 23 20 19 21 20 21 24 24 27 26 27 30 28 27 28 28 29 29 28 27 28 27 28 29 33 39 45 50 46 36 36 35 32 38 43 45 41 34 31 31 30 31 36
44 42 41 40 39 39 39 38 37 36 36 37 38 37 34 30 27 27 24 23 23 22 24 25 26 28 27 27 27 27 27 23 23 27 29 29 29 28 27 28 28 28 29 31 36 43 49 47 38 36 36 32 36 43 46 45 39 34 34 30 26 30
41 40 39 38 37 37 37 37 37 37 39 42 45 44 40 34 31 32 29 28 26 20 22 27 30 34 33 28 26 26 25 21 22 27 29 29 29 28 27 27 28 29 29 30 34 39 46 48 41 38 38 33 33 41 45 46 43 38 36 33 25 22
39 38 37 36 35 35 36 36 36 37 39 41 45 47 44 37 35 36 33 32 28 22 26 31 31 35 36 31 26 24 23 21 23 26 27 28 28 27 27 27 28 29 29 29 32 36 41 46 44 40 40 37 34 38 44 46 46 42 37 36 32 26
37 37 35 34 34 34 35 36 36 37 38 40 42 45 44 40 39 39 36 35 34 31 34 35 34 35 36 35 29 24 20 19 21 23 25 27 27 26 26 26 27 28 29 29 30 34 38 43 47 43 41 41 38 37 41 44 45 45 41 38 36 33
35 35 35 34 34 34 35 36 37 37 38 39 39 40 41 41 42 41 39 38 38 38 38 38 38 37 35 35 30 24 21 20 21 24 25 26 27 26 26 26 27 27 27 28 29 32 35 40 46 47 44 43 42 40 40 42 44 45 45 42 40 39
35 35 35 34 34 34 35 36 37 38 38 37 37 37 38 40 42 43 41 40 37 36 40 42 41 36 33 34 30 26 24 22 25 28 27 25 27 27 26 26 27 27 26 27 28 30 32 36 41 47 47 46 45 44 41 42 43 42 44 46 45 44
35 35 35 35 35 35 35 36 37 38 37 37 37 36 36 37 40 43 42 42 37 32 37 43 42 36 32 34 32 28 24 23 28 32 29 26 28 27 25 25 26 26 26 27 28 29 31 33 36 42 47 48 47 46 44 43 43 42 41 44 47 48
35 35 35 35 36 36 36 37 38 38 38 37 37 36 36 36 38 41 42 45 42 34 34 39 41 38 34 35 32 28 24 26 31 34 31 28 28 28 25 24 24 25 27 27 28 29 31 32 34 38 43 46 47 48 47 45 45 45 43 41 43 46
35 35 36 36 36 37 37 37 38 38 38 37 37 36 36 37 37 39 41 44 44 38 35 37 40 40 38 36 33 30 28 29 33 35 32 28 28 29 27 23 20 22 25 26 26 28 30 31 33 36 40 44 45 47 49 47 46 47 48 45 41 41
35 35 36 37 37 37 37 38 38 38 39 38 37 37 36 37 38 38 40 42 43 42 38 38 40 42 41 39 36 35 33 31 36 37 33 31 30 31 29 25 21 21 23 25 24 25 28 30 32 35 39 42 44 45 48 49 48 48 49 48 45 43
36 36 37 38 38 38 38 39 39 39 39 38 38 38 37 37 38 39 40 41 42 43 43 40 41 43 43 43 41 39 37 36 39 40 38 36 34 32 30 29 26 24 25 25 24 23 25 28 31 34 38 41 44 46 47 47 48 48 48 49 49 48
37 37 37 38 39 39 39 39 40 40 40 40 39 39 38 38 38 40 41 42 42 43 45 44 44 45 45 45 46 45 44 43 42 43 42 40 37 34 32 32 31 29 27 23 22 24 25 27 29 31 35 39 41 44 46 46 46 46 47 48 49 50
38 39 39 39 40 40 40 41 41 41 42 42 41 40 40 40 39 40 41 43 44 43 45 46 46 47 47 47 47 48 49 48 46 45 44 41 38 37 35 33 32 33 30 24 21 24 26 28 29 29 30 32 35 40 44 45 44 43 43 45 46 47
40 40 41 41 41 41 41 41 42 42 43 44 44 43 42 42 41 41 42 43 45 45 45 47 48 48 49 48 47 48 50 50 48 47 46 43 41 41 39 37 35 34 32 28 25 25 25 25 28 29 28 29 31 33 37 41 43 43 41 40 40 41
41 42 42 43 43 42 42 42 43 43 43 44 45 45 44 44 44 43 43 44 46 47 47 47 49 50 50 50 48 48 49 51 50 49 49 46 44 44 44 41 39 36 33 32 31 30 27 23 25 28 29 31 31 29 32 37 39 38 35 35 37 38
43 43 44 44 44 44 44 44 44 44 44 45 45 46 46 46 46 45 45 46 46 48 49 48 49 51 51 51 50 49 50 51 52 51 50 49 48 47 47 44 42 39 36 36 35 33 31 29 28 27 27 29 30 31 33 34 32 30 30 32 35 37
44 45 45 46 46 46 46 46 46 46 46 46 46 47 47 47 47 47 47 48 48 49 50 50 50 52 53 53 53 51 51 52 53 53 52 52 51 51 50 47 45 42 39 39 38 35 34 35 34 30 28 27 27 30 32 30 29 30 28 28 30 32
46 46 46 47 47 47 48 48 48 48 48 48 49 49 49 49 49 49 49 49 50 50 51 52 52 52 53 54 55 54 53 53 54 54 54 54 54 54 53 51 48 45 44 43 41 39 38 39 38 34 32 31 29 28 28 27 28 28 26 25 27 29
48 48 48 48 49 49 50 50 50 50 50 50 51 51 51 52 52 52 52 51 52 52 52 53 53 54 54 55 56 56 55 55 55 56 56 56 56 57 56 54 51 48 48 47 44 42 43 43 40 37 36 35 32 30 29 27 27 27 26 26 26 28
50 50 50 51 51 51 52 52 52 52 52 52 52 53 53 53 54 54 54 54 54 54 54 54 55 55 55 56 57 57 58 58 57 57 57 58 58 59 59 57 55 52 51 51 49 46 46 46 43 42 41 40 37 35 34 32 31 30 30 29 29 29
51 51 52 53 54 54 54 54 54 54 54 54 54 54 55 55 55 55 55 56 56 56 56 56 56 57 57 57 58 59 59 60 60 60 60 59 59 60 61 61 59 57 54 53 53 51 50 49 47 45 45 44 42 41 38 35 34 34 33 33 33 33
51 52 53 54 55 56 57 57 56 56 56 56 56 56 57 57 57 57 57 57 57 58 58 58 58 58 58 59 59 60 61 61 62 62 63 63 62 61 62 63 63 62 60 57 56 55 54 53 51 50 50 47 45 45 43 41 39 38 37 37 37 38
52 53 53 54 56 57 58 59 59 59 58 58 58 58 59 59 59 59 59 59 59 59 59 59 60 60 60 61 61 61 62 62 63 64 65 66 66 64 63 64 65 66 65 62 60 59 57 56 55 53 52 51 49 48 48 47 45 43 40 40 40 40
53 54 55 55 56 58 59 60 60 60 60 60 61 61 61 61 61 62 61 62 62 61 61 61 61 61 62 62 63 63 63 64 65 66 67 68 68 68 67 65 65 67 67 66 64 63 62 61 59 57 55 54 53 51 51 50 49 47 44 43 42 42
55 56 57 57 57 58 59 59 60 60 61 62 63 63 64 64 64 64 64 64 64 63 63 63 63 63 63 63 64 65 65 66 66 67 68 69 70 71 71 69 68 67 68 68 66 65 66 66 64 62 59 58 57 55 54 54 53 52 49 48 46 45
57 57 58 58 59 59 60 60 61 61 61 62 63 64 65 66 66 66 66 66 66 65 65 65 65 65 65 65 65 66 66 67 68 69 69 70 72 72 73 72 72 70 69 69 68 66 66 68 68 66 63 62 61 60 59 58 58 57 54 52 50 48
59 60 60 60 60 61 61 62 62 62 63 63 64 65 65 66 67 67 67 67 67 67 67 67 67 67 67 67 67 67 68 68 69 70 71 71 72 73 74 74 74 74 72 71 70 68 66 67 69 69 67 65 64 63 63 62 61 60 58 56 54 52
63 63 63 62 62 63 63 63 64 64 65 65 65 65 66 66 66 67 67 67 68 69 69 70 70 69 69 69 69 69 69 70 70 70 72 73 74 74 75 75 76 76 76 75 74 72 69 67 67 69 69 68 66 65 65 64 61 59 58 58 57 57

ECMWFFLT2_250_spd_015.txt.gz
Wind_Speed
81 80 79 78 77 77 76 75 74 73 72 71 70 69 67 65 64 62 61 60 57 55 52 46 41 39 36 34 34 34 34 33 32 31 31 30 31 31 30 29 26 24 24 25 23 20 20 23 26 29 35 41 41 36 34 34 34 35 36 37 35 33
79 79 78 77 76 75 75 74 73 72 70 69 68 66 64 63 61 60 59 57 54 52 49 43 39 37 34 32 33 33 32 31 29 29 30 30 30 29 28 25 23 22 24 24 21 19 21 23 27 30 33 39 42 39 36 37 37 36 36 35 33 32
77 77 76 75 74 74 73 73 72 70 68 67 65 63 62 61 59 58 56 53 49 47 44 40 38 37 35 33 32 30 28 27 26 25 26 25 25 24 23 21 21 22 23 21 18 19 21 24 27 30 32 35 41 40 36 38 39 37 35 34 33 34
76 75 74 74 73 73 72 71 70 68 66 65 63 61 59 58 57 55 53 49 44 40 38 37 37 37 36 34 31 26 23 21 20 19 19 19 19 20 20 20 21 21 19 17 17 19 21 24 26 29 32 33 38 40 37 39 40 39 35 34 35 37
75 73 72 72 72 71 70 69 68 66 64 63 61 59 57 55 54 52 49 46 40 37 36 36 35 35 35 32 27 20 17 15 15 14 15 16 17 18 19 20 19 18 16 15 16 19 21 23 25 28 31 31 35 38 37 39 40 38 35 34 36 39
73 71 71 70 70 69 68 67 66 64 62 60 58 56 54 51 50 48 47 44 41 38 36 35 35 32 29 26 21 17 17 15 13 13 14 16 17 17 18 17 16 15 15 15 16 18 21 22 24 28 30 30 35 38 37 39 40 37 34 34 37 39
71 70 69 68 67 67 66 64 62 61 59 58 56 53 50 48 46 45 44 43 41 38 36 34 31 27 25 23 21 19 20 18 15 14 14 15 16 15 14 14 14 14 14 15 16 18 21 23 24 27 29 29 34 39 38 38 39 37 34 34 36 37
68 67 66 66 65 64 62 60 59 58 56 55 53 50 47 44 43 43 42 41 39 38 35 30 24 22 23 25 24 22 22 21 18 16 14 14 16 16 14 14 15 15 14 15 15 18 21 23 24 25 28 29 32 38 39 38 40 38 35 33 35 36
65 63 63 63 63 61 58 56 55 54 52 51 49 46 44 42 40 40 39 38 36 35 32 25 21 22 25 27 26 24 22 21 19 18 17 17 16 16 16 16 17 17 16 16 16 18 20 23 25 25 27 27 28 35 39 39 41 40 37 34 34 36
62 60 59 59 59 58 55 53 51 50 49 48 45 43 41 39 38 37 37 35 32 30 27 25 24 25 26 28 27 25 24 23 22 21 22 22 19 16 17 18 19 19 18 17 17 18 20 23 25 26 26 27 27 31 37 39 42 42 39 37 35 35
59 57 56 55 54 54 52 49 47 47 46 44 41 40 39 38 36 35 34 32 29 27 27 28 27 26 27 29 28 26 26 26 24 23 24 25 22 19 21 20 19 19 17 16 17 18 19 22 25 26 27 28 27 30 34 37 41 43 42 41 38 37
56 54 52 51 50 49 48 46 44 44 43 40 39 38 37 36 34 32 31 31 29 28 31 31 28 28 30 31 29 27 29 28 24 22 23 25 22 21 23 20 18 18 18 18 18 18 19 21 24 27 28 29 29 30 31 33 38 43 44 44 43 40
52 50 49 47 45 44 44 43 42 41 39 37 36 36 37 35 32 31 31 31 30 31 34 33 30 30 31 32 30 29 30 28 25 22 23 23 22 23 24 21 20 19 19 20 19 18 19 20 23 26 28 29 31 31 31 32 35 39 43 45 45 44
47 46 45 43 42 41 41 40 39 38 36 35 35 35 36 34 32 32 32 31 31 34 36 35 32 32 32 32 30 29 29 28 27 25 23 21 20 23 24 23 23 22 20 20 20 19 18 19 22 25 28 30 31 33 33 34 34 35 39 42 43 45
43 42 41 40 39 39 38 38 37 36 34 34 34 35 35 34 33 34 33 32 33 36 38 36 34 34 33 32 30 29 28 26 27 28 27 24 21 22 24 26 28 25 22 21 20 19 18 18 21 24 28 30 32 33 35 37 36 35 37 38 39 41
41 40 39 38 37 36 36 36 35 35 33 33 33 34 34 34 34 35 34 34 35 37 40 38 36 36 35 34 31 28 26 25 26 29 31 29 26 26 27 29 31 26 22 22 21 19 17 17 20 23 27 30 32 33 35 39 39 36 36 38 38 38
39 38 37 36 35 35 35 36 35 34 33 32 32 33 34 34 35 36 35 35 36 38 42 40 37 38 38 36 33 28 26 26 28 30 33 34 32 32 31 31 31 26 25 25 23 20 17 17 19 22 26 30 33 34 35 40 42 39 37 37 37 37
37 36 35 35 35 35 35 35 35 34 33 32 32 32 33 35 36 37 37 36 36 39 44 42 39 40 41 38 35 33 29 26 28 30 33 35 35 34 32 32 31 28 28 29 26 23 19 18 19 21 25 29 33 35 36 39 44 45 41 37 37 37
36 35 35 35 35 35 35 34 34 34 33 32 32 32 33 35 37 38 38 37 38 40 45 45 42 42 43 41 38 37 34 31 30 31 31 32 33 33 32 34 34 31 33 33 28 25 23 21 20 20 24 28 32 36 38 39 43 48 46 41 38 37
36 35 35 35 35 35 35 34 34 34 33 33 33 33 33 35 37 39 39 38 39 41 44 46 46 45 45 43 41 40 39 37 36 37 35 30 31 35 35 36 36 34 36 36 30 27 27 26 24 22 23 27 31 35 38 39 41 46 48 46 42 39
36 36 35 35 35 35 35 34 34 34 34 33 33 33 34 35 37 39 40 40 40 42 43 45 48 48 47 45 44 43 42 40 38 41 41 38 35 36 36 38 39 39 39 39 36 33 32 30 28 25 23 26 30 34 37 38 40 44 48 51 49 45
37 36 35 35 35 35 35 35 35 35 34 34 34 34 34 36 37 39 40 41 41 42 43 45 47 49 49 49 48 47 46 43 39 40 45 47 44 40 38 38 41 43 43 42 40 37 35 33 31 28 24 25 29 32 35 37 39 42 46 51 52 50
38 37 36 35 35 35 35 35 35 35 35 34 35 35 35 36 38 39 40 41 42 42 43 45 47 48 50 51 52 52 51 47 42 40 44 49 50 47 45 43 44 46 45 43 41 38 36 34 33 30 26 26 28 30 33 36 38 41 43 47 51 52
39 38 37 36 35 35 36 36 36 36 36 35 35 36 37 37 38 40 41 41 42 43 43 45 46 48 50 52 54 56 55 52 47 43 43 46 50 51 50 49 48 48 46 44 43 40 38 36 35 32 28 28 29 29 32 35 37 39 41 43 47 51
39 38 38 37 36 36 36 37 37 37 37 37 36 37 38 39 39 40 41 42 43 43 44 45 46 47 49 51 54 57 57 55 52 49 47 46 48 50 51 51 49 47 47 47 46 44 41 40 38 33 30 30 31 32 32 34 36 38 40 41 43 47
41 40 39 38 37 37 37 37 38 38 38 38 37 38 39 40 41 41 42 43 43 44 44 46 46 47 48 50 52 56 58 57 55 52 51 50 49 49 50 51 50 48 48 49 48 46 44 43 39 36 35 35 34 35 34 33 34 36 39 40 41 44
43 42 40 40 39 39 38 38 39 39 39 39 39 39 39 40 41 42 43 44 44 45 45 46 47 48 49 49 51 53 56 56 55 54 54 53 52 51 50 50 51 51 51 50 49 47 46 45 41 40 41 40 36 35 35 36 36 36 37 39 41 42
44 44 42 42 42 41 41 40 40 40 41 41 40 40 40 41 42 43 44 45 46 46 47 47 48 48 49 50 51 52 53 54 54 53 55 55 55 54 52 51 52 53 53 51 49 48 47 45 43 43 45 43 40 37 37 40 40 38 37 38 40 42
45 45 45 44 44 44 43 42 42 42 42 42 42 42 42 42 43 43 44 45 47 47 48 49 49 49 50 50 51 52 53 53 53 53 54 56 57 57 55 53 52 54 55 53 51 50 49 47 46 46 46 46 45 42 41 42 42 40 39 39 39 41
46 46 46 46 46 46 46 45 44 44 44 44 44 44 44 44 44 45 46 46 47 48 49 50 51 51 51 52 52 53 53 54 54 53 53 55 57 58 58 57 55 55 57 57 55 54 52 51 49 49 48 47 48 47 45 44 45 44 42 41 41 41
46 47 48 47 48 48 48 48 47 47 47 46 46 47 47 47 47 47 48 48 49 49 50 51 52 52 53 53 54 54 55 55 55 55 55 54 56 58 59 60 58 57 57 59 59 58 57 56 54 53 51 49 49 50 48 47 48 48 46 44 43 43
48 49 49 49 49 50 50 50 50 50 50 49 49 49 49 50 49 49 50 50 51 51 52 52 53 53 54 55 55 56 56 57 57 57 57 56 56 57 58 60 61 60 59 59 60 61 61 60 59 58 56 53 52 52 51 50 50 50 50 47 43 42
50 50 51 51 50 51 51 52 52 52 52 52 52 52 52 52 52 52 52 53 53 53 54 54 55 55 56 56 57 57 58 58 59 59 59 59 58 58 58 60 61 62 61 61 60 61 62 62 62 61 61 59 57 56 56 55 53 51 51 50 44 43
51 52 53 53 52 52 52 53 53 54 53 54 55 55 55 55 54 54 55 55 55 55 55 56 57 57 58 58 58 59 59 60 60 61 61 61 61 60 60 60 61 62 63 63 62 62 63 63 63 63 63 63 62 61 60 60 58 55 53 53 49 47
54 54 56 56 55 55 55 55 56 56 55 55 56 57 57 57 57 57 57 57 57 57 57 58 58 59 60 60 60 61 61 61 62 62 63 63 64 63 62 62 63 63 63 64 64 63 64 64 64 64 64 64 64 64 64 63 61 58 57 56 55 53
57 58 59 59 59 58 58 58 58 58 57 57 57 58 58 59 59 60 59 59 59 58 59 59 60 61 61 62 62 62 63 63 64 64 65 65 65 66 65 65 65 65 65 65 65 65 66 66 66 66 66 65 65 66 67 67 64 62 60 59 58 57
61 61 62 62 62 61 61 61 61 60 60 60 59 59 59 59 60 61 61 61 61 60 60 60 61 62 62 63 63 64 64 65 66 66 67 67 67 67 68 68 68 68 68 67 67 67 67 67 68 69 68 68 67 68 69 70 69 67 65 62 61 60

ECMWFFLT2_250_spd_021.txt.gz
Wind_Speed
93 91 90 90 89 88 87 86 84 83 82 80 79 77 76 74 73 72 70 68 66 64 62 61 59 58 57 56 55 54 52 50 47 43 39 36 33 30 28 27 27 26 26 27 29 31 32 31 31 30 30 28 27 28 32 34 36 39 42 43 42 40
91 90 89 88 87 86 85 84 82 81 80 79 77 75 74 73 71 70 68 66 65 62 61 60 58 57 56 55 53 52 50 48 44 40 36 34 31 29 27 26 26 26 28 29 31 32 33 32 30 30 30 29 27 28 33 35 37 41 42 42 42 41
90 89 88 86 85 84 83 82 81 80 78 77 75 74 73 71 70 68 66 65 63 61 60 59 57 56 54 53 51 49 47 45 42 37 33 32 30 28 27 27 26 28 30 31 32 33 34 33 32 31 31 31 28 29 33 36 39 42 43 42 43 43
88 87 85 84 83 83 81 80 79 78 76 75 74 73 71 70 68 66 64 63 62 60 59 57 56 54 52 51 49 46 44 42 39 35 31 30 29 27 28 27 27 30 33 33 33 33 34 34 34 33 33 32 29 29 33 37 40 44 45 43 44 44
85 84 83 83 82 81 80 78 77 75 75 74 73 71 69 68 66 65 63 62 60 59 57 55 54 52 50 48 46 44 41 39 37 33 30 28 28 28 28 28 28 31 33 34 34 33 33 34 34 33 33 32 29 30 33 36 42 47 46 44 44 44
82 82 82 81 80 79 77 76 75 74 73 72 70 69 67 66 65 63 61 60 59 57 55 53 51 49 47 45 43 41 38 37 35 31 29 28 28 29 30 30 30 32 34 35 34 33 33 34 33 32 31 30 29 30 32 35 42 48 48 44 43 43
81 81 80 79 78 77 75 74 73 72 71 70 68 66 66 64 63 61 60 58 57 55 53 50 48 46 44 42 40 38 36 34 33 31 28 28 29 30 31 32 32 32 33 35 33 32 31 31 31 30 30 29 28 29 31 34 41 48 49 46 44 43
79 79 78 77 76 75 74 72 71 69 68 67 66 65 64 63 61 59 58 56 54 52 49 47 45 43 41 38 35 33 32 32 32 29 28 28 29 31 32 32 32 32 32 33 32 30 29 28 28 28 28 27 27 28 30 33 39 47 50 48 47 44
78 77 77 76 74 73 71 69 68 67 66 64 63 63 62 60 59 57 55 53 51 49 46 44 42 40 37 34 31 26 26 30 30 28 27 28 29 31 33 32 31 31 32 32 30 28 27 25 24 25 26 25 26 26 28 32 37 45 50 50 49 47
76 75 75 73 72 70 68 67 66 64 63 61 60 60 59 57 56 54 52 50 47 44 42 40 38 36 32 29 28 23 22 26 28 29 29 28 29 31 32 31 30 31 31 30 28 28 25 22 21 21 22 23 24 24 26 29 33 41 48 51 50 49
74 73 72 71 69 67 65 64 63 62 60 59 57 57 55 53 52 50 48 46 43 41 40 37 34 32 29 26 27 25 23 25 29 31 29 28 29 30 30 29 29 30 30 29 28 27 24 20 18 18 18 20 22 23 24 26 29 35 43 49 51 51
71 70 69 68 66 64 63 61 60 59 57 56 54 53 51 49 48 47 45 44 42 40 38 33 30 29 27 25 26 26 24 26 30 29 24 25 28 29 29 29 29 29 29 29 29 27 23 20 19 18 17 18 20 22 24 26 28 30 36 44 49 51
67 66 65 64 63 61 60 58 56 55 54 52 51 49 48 46 47 46 44 43 40 37 33 29 28 27 24 23 23 23 23 27 29 24 20 22 26 27 28 30 29 29 29 29 30 27 23 21 21 21 19 18 19 21 23 26 28 29 33 39 44 48
63 62 61 60 59 58 56 55 53 51 49 48 47 46 45 44 43 43 41 39 36 33 30 27 26 25 23 21 19 21 24 27 27 24 22 22 24 26 28 30 30 30 30 30 31 28 25 24 24 23 22 20 18 20 22 25 27 29 32 37 41 44
59 58 57 56 54 53 52 51 49 48 46 44 43 42 42 41 40 39 37 35 33 30 27 26 25 24 21 19 20 23 24 25 27 28 28 25 22 23 28 30 31 31 31 31 31 29 28 27 27 25 24 21 20 23 24 24 27 29 31 35 40 44
55 54 53 52 50 49 48 47 46 45 43 42 40 39 38 38 37 35 34 32 31 28 26 25 25 24 22 21 24 25 22 22 26 30 31 30 26 24 29 32 33 32 31 31 31 30 29 29 28 27 26 24 23 27 28 26 26 28 31 33 38 44
50 49 48 47 46 45 44 43 42 41 40 39 37 36 35 35 34 33 32 31 30 28 27 26 25 24 24 25 27 26 24 25 27 27 28 30 28 28 31 34 35 33 31 32 32 31 29 28 28 27 27 28 27 28 30 29 27 27 30 32 35 40
46 45 44 44 43 42 41 40 40 39 37 36 35 34 33 33 33 33 31 30 29 28 27 27 26 25 27 28 29 27 28 31 31 27 26 26 27 31 35 35 35 35 33 34 34 32 31 29 29 28 28 30 29 29 30 30 28 27 29 32 34 36
42 41 41 40 39 38 38 38 37 37 35 33 32 33 32 32 32 33 32 31 29 28 28 28 27 27 28 31 31 31 34 35 32 28 26 26 28 32 35 35 35 35 34 35 34 33 33 31 31 30 29 30 30 29 30 30 29 29 30 32 34 35
38 38 37 37 36 36 35 35 35 35 33 32 32 32 33 33 33 33 33 32 30 29 29 29 29 28 29 31 32 35 38 36 31 28 29 30 31 32 34 35 35 35 35 37 35 32 30 28 29 32 31 30 31 30 29 30 30 31 32 32 33 35
36 35 35 34 34 34 34 34 34 33 33 33 33 33 34 33 33 33 33 32 31 30 30 30 30 30 30 31 33 36 39 37 33 32 32 32 33 32 32 34 34 31 32 34 35 33 30 26 25 30 33 32 32 31 30 30 31 33 33 33 32 34
34 34 34 34 34 34 33 33 33 34 34 34 35 35 35 34 34 34 34 33 32 31 31 31 31 31 31 32 33 36 40 41 37 34 33 32 33 32 32 33 32 29 28 29 30 33 34 31 26 27 31 34 33 32 30 30 31 32 33 32 31 32
34 33 33 34 35 34 34 34 34 34 35 35 36 36 36 35 35 35 34 34 32 32 32 32 32 32 33 33 34 35 39 43 42 36 34 33 34 35 34 34 34 32 31 31 31 32 33 33 30 29 31 33 33 33 33 32 33 32 31 29 28 29
35 34 34 35 36 35 35 35 35 36 36 36 37 37 36 36 36 35 35 34 33 33 32 33 34 34 34 34 35 35 38 43 46 41 37 35 36 37 37 37 37 36 36 37 36 35 34 33 32 33 33 32 31 33 34 35 35 34 32 31 30 30
36 36 35 36 36 36 36 36 36 37 37 37 37 37 37 37 36 36 35 35 34 34 33 34 34 35 35 35 36 36 37 41 46 45 41 39 39 40 40 41 42 41 40 41 42 41 39 37 37 37 36 33 31 33 34 34 35 36 36 36 35 35
37 37 37 38 38 38 38 37 37 37 38 38 38 38 38 37 37 36 36 35 35 35 35 35 35 36 36 37 37 37 38 40 44 46 46 44 43 43 43 44 45 46 45 46 47 46 44 43 43 42 40 37 37 37 37 36 36 37 37 38 40 40
38 38 39 40 40 39 39 39 38 38 39 39 39 39 39 38 38 37 37 36 36 36 36 36 36 37 37 38 38 38 39 40 43 46 47 48 48 48 47 47 47 48 49 49 50 50 49 47 47 47 45 43 42 42 42 40 39 39 38 38 40 42
39 40 40 41 41 41 40 40 40 40 40 39 39 39 39 39 39 39 39 38 38 37 37 37 37 38 38 39 39 40 40 41 43 45 47 48 50 51 51 51 50 51 51 51 52 53 54 53 50 50 49 47 47 47 46 45 44 43 41 41 41 42
41 41 41 42 42 42 42 41 41 41 41 41 40 40 40 40 40 40 40 40 40 39 39 39 39 39 40 40 40 41 41 42 43 45 47 49 50 51 52 53 54 54 54 54 53 54 57 57 55 53 53 51 51 51 50 50 49 47 46 46 44 43
43 42 42 43 44 44 44 43 42 42 42 42 41 41 41 41 41 42 42 42 42 41 41 41 40 41 41 41 42 42 43 44 45 46 47 49 50 52 53 54 55 56 57 57 56 55 56 57 57 57 56 56 56 55 54 54 53 52 50 50 49 48
44 44 44 45 45 46 45 45 44 43 43 43 43 43 43 43 43 43 43 43 43 43 43 43 43 43 43 43 44 44 44 45 46 47 48 49 50 52 54 55 56 57 58 59 59 57 56 57 58 58 59 59 59 58 58 58 57 56 55 54 55 55
46 45 45 46 47 47 47 46 46 45 45 45 45 45 45 45 44 44 44 44 45 45 45 45 45 45 45 45 46 46 46 46 47 48 49 50 51 52 54 55 56 57 59 60 60 59 57 57 58 58 59 59 60 60 60 60 60 59 58 57 58 58
50 48 48 47 48 48 48 48 48 48 47 47 47 46 47 47 46 46 46 46 46 46 47 47 47 47 47 47 47 48 48 48 49 49 50 51 52 53 54 55 56 57 59 60 61 60 59 58 58 58 59 59 61 61 61 61 61 60 59 59 59 59
53 52 51 50 49 49 49 49 50 50 50 49 49 48 48 48 48 48 48 48 48 48 48 48 49 49 49 49 49 50 50 51 51 51 52 52 53 54 55 56 57 58 59 60 61 61 61 59 58 59 60 60 61 62 63 63 62 61 61 61 61 62
55 55 54 53 52 51 51 51 52 52 52 52 51 50 50 50 49 49 50 50 50 50 50 50 50 51 51 51 51 51 52 52 53 54 54 55 55 56 57 57 58 59 60 61 61 62 62 62 61 60 60 62 62 63 64 64 64 64 63 64 64 64
57 57 56 55 55 55 54 54 54 54 54 53 53 53 53 52 51 51 51 51 52 52 52 52 52 52 53 53 53 53 53 54 54 55 56 57 57 58 58 59 59 60 61 62 62 63 63 64 63 63 62 63 64 65 65 65 65 66 65 65 65 66
60 60 59 58 57 57 57 57 57 56 56 55 55 55 55 55 54 54 53 53 53 54 54 54 54 54 54 55 55 55 55 55 56 56 57 58 59 60 60 60 61 61 62 62 63 63 64 64 65 65 65 64 65 66 66 66 66 66 66 66 66 66

ECMWFFLT2_250_spd_024.txt.gz
Wind_Speed
97 97 96 95 93 92 90 88 87 86 85 84 83 82 81 80 79 78 76 74 73 72 70 68 66 63 61 57 55 54 53 52 51 50 48 46 44 42 39 35 33 32 31 32 33 32 31 30 29 29 30 31 32 32 32 31 29 29 31 35 39 40
96 95 94 92 91 89 88 86 85 84 83 83 82 81 80 79 77 76 75 74 72 70 67 65 63 60 58 55 54 53 52 51 50 48 47 45 42 39 36 33 31 30 30 31 33 33 32 30 30 30 31 31 31 31 31 31 30 29 30 35 39 41
93 92 91 90 88 87 86 85 84 83 83 82 81 80 79 77 76 75 74 72 70 68 65 62 60 58 56 54 51 50 50 49 48 46 45 42 40 37 34 31 29 29 29 31 33 33 32 31 31 31 31 30 30 30 30 30 29 28 29 34 40 41
90 90 89 88 86 85 84 84 83 83 82 81 80 79 77 76 75 73 72 70 67 65 62 59 57 55 54 51 49 48 47 46 45 44 42 39 37 35 31 29 28 28 29 31 33 33 32 32 33 32 31 30 30 30 29 28 28 28 29 34 39 41
88 88 87 86 85 84 83 83 82 82 81 80 79 77 76 74 73 71 69 67 64 62 59 56 54 52 51 49 47 46 44 43 42 41 39 37 34 32 30 28 27 28 29 31 33 33 33 33 34 33 31 31 31 30 29 29 28 28 30 34 38 41
87 86 86 85 84 83 82 82 81 80 79 78 76 75 73 72 71 68 66 64 61 59 56 54 52 50 48 46 44 42 41 40 39 36 36 34 31 29 28 27 27 27 29 32 34 34 34 35 36 35 33 32 32 31 31 31 30 30 32 34 38 41
85 85 84 84 83 82 81 81 80 79 78 76 74 72 71 71 69 66 64 61 59 56 54 51 49 46 44 42 41 39 38 37 35 33 32 29 27 27 26 26 26 28 29 32 34 35 35 36 37 36 34 33 33 32 33 33 32 33 34 35 38 41
84 83 83 82 82 81 80 80 78 77 75 73 72 70 69 68 66 64 61 59 56 53 51 48 45 42 40 37 36 34 33 32 31 29 28 24 23 24 25 26 27 28 30 31 32 34 35 37 38 36 35 34 34 33 33 33 32 34 35 36 38 41
82 82 81 81 80 80 79 78 76 74 73 71 69 67 67 65 63 61 59 56 53 50 48 43 38 35 33 30 28 26 25 27 25 23 24 24 22 22 23 26 28 30 31 31 32 33 35 37 38 36 35 35 34 33 32 32 32 34 35 36 38 41
81 81 80 79 79 78 77 76 74 72 70 68 67 65 64 63 60 58 56 53 50 47 43 34 28 26 24 21 19 18 24 28 22 17 21 25 24 22 23 26 29 31 32 33 33 34 34 36 38 37 37 36 34 32 31 30 30 32 33 35 37 40
80 79 79 78 77 76 74 73 71 69 68 66 65 63 62 59 57 55 53 50 45 40 35 28 23 21 19 16 17 23 30 29 21 19 24 25 25 25 24 27 30 31 32 33 35 36 37 38 39 39 37 35 33 31 29 28 28 29 31 34 36 39
78 77 77 76 74 73 71 70 68 66 65 63 62 60 58 55 53 52 49 46 42 37 34 30 24 20 21 20 24 29 29 26 23 26 28 24 24 27 26 27 29 31 32 34 34 36 38 39 40 39 35 33 31 28 26 25 25 26 28 31 34 37
75 75 74 73 71 70 68 67 65 63 61 60 58 56 54 51 50 48 46 43 39 36 35 33 27 25 26 27 28 28 27 29 31 32 29 25 25 26 25 25 25 26 29 32 34 35 37 38 38 36 32 29 28 27 24 22 22 23 25 27 30 35
72 71 70 69 67 66 64 63 61 59 58 56 55 52 50 48 47 45 43 39 37 37 35 32 28 28 31 33 31 29 29 33 37 33 27 27 28 24 22 22 22 24 25 29 33 35 35 36 35 33 30 26 26 26 24 21 19 19 21 24 27 31
68 67 66 64 63 61 60 59 57 56 54 53 51 49 47 46 44 42 40 37 37 36 33 31 31 30 32 33 31 32 33 34 37 31 25 28 28 23 21 20 22 25 24 26 30 32 33 33 33 32 29 27 26 26 25 22 20 19 19 21 24 27
63 62 61 60 59 58 56 55 53 52 50 48 47 46 44 43 42 40 38 36 35 34 33 33 34 33 32 31 30 33 33 33 35 31 28 30 28 24 23 21 21 24 24 24 27 29 29 31 33 33 31 28 27 27 26 25 23 20 19 19 21 25
58 57 57 56 56 55 53 52 50 49 47 45 44 43 42 40 39 38 36 34 33 32 32 32 32 32 32 32 33 34 31 30 32 32 32 33 31 27 26 24 23 23 24 24 25 27 27 29 32 33 31 28 28 29 29 28 27 23 21 22 22 24
53 53 52 52 52 51 50 49 48 47 45 43 42 41 39 38 37 36 34 33 32 31 30 30 30 30 31 31 34 34 31 30 32 33 34 35 36 32 28 27 24 23 25 27 26 28 27 28 31 32 32 31 31 31 31 31 31 28 25 25 26 26
48 48 48 48 48 48 47 46 46 45 43 42 40 39 37 36 35 34 33 31 30 29 28 28 29 29 30 30 32 33 31 32 33 33 31 32 34 34 32 28 25 25 27 28 30 30 30 29 30 32 33 33 32 32 32 33 33 33 29 27 29 29
45 44 45 45 45 45 44 44 43 42 41 40 38 37 36 34 33 32 31 30 28 27 27 27 28 29 29 29 31 31 32 34 36 34 32 29 28 30 32 29 27 28 28 29 31 32 34 32 29 31 33 33 33 33 32 32 33 34 32 30 31 30
42 42 42 42 43 42 42 42 41 40 39 38 37 35 34 33 32 30 29 28 27 27 27 27 28 29 29 29 30 31 33 37 38 37 36 34 29 29 33 31 29 29 30 31 31 31 35 35 30 29 31 31 32 32 33 32 32 33 32 32 31 29
40 40 40 40 40 40 40 39 39 38 37 36 35 34 33 32 30 29 28 28 27 27 28 28 29 29 29 29 29 31 34 38 40 40 40 41 37 34 36 36 33 31 32 35 34 31 33 34 32 29 28 28 29 31 32 33 33 33 32 32 31 29
38 38 38 38 38 37 37 37 37 37 37 36 35 34 33 31 30 28 28 28 27 27 28 29 30 30 29 29 29 30 34 38 42 42 43 45 43 39 39 40 39 36 35 37 37 34 33 33 33 31 30 29 29 29 31 32 33 33 32 31 31 29
37 37 37 37 36 35 35 36 36 36 36 36 35 34 33 31 30 29 28 28 28 28 29 30 31 31 30 30 30 31 33 37 42 42 43 47 47 44 41 41 41 39 38 39 39 38 36 35 34 34 34 32 31 30 30 31 31 31 32 31 30 28
36 37 37 37 36 35 35 35 36 36 36 36 36 35 34 32 30 29 29 29 29 29 30 31 31 32 32 31 31 32 33 36 40 43 44 47 48 47 44 42 41 40 40 42 43 41 39 38 36 36 38 37 34 32 31 32 30 29 31 32 32 30
36 37 37 37 36 35 35 35 35 35 36 36 36 36 35 34 32 31 30 30 30 30 31 31 32 33 33 32 32 33 34 35 38 42 44 47 48 47 45 44 44 43 41 43 45 44 42 41 40 39 40 40 39 36 34 34 32 30 32 34 33 32
36 37 38 38 37 36 35 35 35 35 35 36 36 36 35 34 33 32 32 31 31 31 32 32 33 34 34 34 34 34 35 36 37 40 43 47 50 48 46 44 45 46 44 43 45 45 44 44 43 43 44 43 42 41 39 37 34 34 35 35 35 34
36 37 37 37 36 36 35 35 36 36 36 36 36 36 36 35 34 34 34 33 33 32 33 33 33 34 35 35 35 35 35 36 37 39 42 46 50 51 49 46 44 46 46 46 47 47 47 47 46 45 46 47 45 44 44 42 38 38 38 37 37 37
37 37 38 37 36 36 36 36 37 37 36 36 37 37 37 36 36 35 35 34 34 34 34 34 34 35 35 36 36 36 36 37 37 39 40 44 49 52 52 49 46 46 48 48 49 50 50 50 50 50 50 51 50 48 46 46 44 42 42 42 42 41
38 38 38 38 37 37 36 36 37 37 37 37 37 38 38 38 37 37 36 36 35 35 35 35 35 35 36 36 37 37 37 37 38 39 40 42 47 51 52 51 49 48 49 51 51 52 53 53 53 53 54 55 55 54 51 50 49 47 47 47 47 45
40 39 39 39 38 37 37 37 37 37 38 38 38 38 38 39 39 38 38 38 37 36 36 36 36 36 36 37 37 38 38 39 39 40 41 42 45 49 51 52 51 50 51 53 54 54 55 55 55 55 55 56 57 57 56 54 53 52 51 51 51 49
43 42 42 41 41 39 38 38 38 38 38 39 39 39 39 39 40 40 39 39 39 38 38 38 37 37 37 38 38 39 39 40 40 41 42 43 44 47 49 51 51 51 52 54 56 57 58 58 58 57 57 58 60 60 59 58 56 55 54 53 53 53
46 45 44 44 44 43 41 40 40 40 39 39 40 40 40 41 41 41 41 41 40 40 40 40 40 39 39 39 39 40 40 41 42 42 43 44 45 46 48 50 51 52 53 55 57 58 59 60 61 61 61 61 61 62 63 62 60 58 57 56 56 56
49 47 47 47 47 46 45 44 43 43 42 41 41 41 41 42 42 42 42 42 42 42 42 42 42 42 41 41 41 41 42 42 43 44 44 45 45 46 48 50 51 52 53 55 56 58 60 61 62 63 64 63 62 62 63 64 63 62 61 59 59 60
52 50 49 49 49 49 48 48 47 46 45 44 43 42 42 43 43 44 44 44 43 43 44 44 44 44 44 44 44 43 43 44 44 45 46 46 46 47 48 50 51 52 54 55 56 58 60 61 62 63 65 66 65 64 63 64 65 66 64 62 61 62
55 54 53 52 52 52 51 51 50 49 48 47 46 45 44 44 44 44 45 45 46 45 45 46 46 47 47 47 47 46 46 46 46 47 47 48 48 48 49 50 51 53 54 55 57 58 59 61 62 62 63 65 67 67 66 64 65 66 67 65 63 62
57 57 56 55 55 54 54 53 52 52 50 49 48 47 47 47 46 46 47 47 47 47 48 48 48 48 49 49 50 50 50 49 49 49 49 49 50 50 51 51 52 53 54 56 57 58 60 61 62 63 64 64 66 68 68 67 66 66 67 67 67 66

ECMWFFLT2_250_spd_027.txt.gz
Wind_Speed
95 95 95 95 95 94 93 89 87 87 84 83 84 83 81 80 78 76 76 75 73 72 70 68 66 63 58 57 58 56 54 54 54 52 50 48 45 44 45 44 42 40 38 37 36 33 32 32 31 31 31 30 30 30 30 29 28 28 31 32 33 35
92 93 93 93 93 92 91 88 87 86 84 83 82 80 79 77 75 75 75 74 72 70 68 66 64 60 57 56 55 52 49 50 51 50 49 46 43 42 43 43 42 39 37 35 34 32 32 32 31 31 31 31 31 30 30 29 28 29 30 32 33 36
89 90 90 90 90 89 89 88 86 85 83 82 80 79 79 77 76 75 73 71 69 68 66 64 61 56 54 51 48 46 45 46 47 47 46 44 42 40 40 41 40 38 36 34 33 33 32 32 32 31 32 32 31 30 30 28 28 29 30 32 34 36
87 88 88 88 87 87 86 85 84 83 82 81 80 78 77 75 74 73 71 69 67 66 64 62 58 54 53 49 46 45 46 45 44 42 42 41 39 37 36 38 38 36 35 34 33 33 33 32 32 31 32 32 32 31 30 29 28 28 29 31 33 36
85 86 86 85 84 83 83 82 81 80 79 78 77 76 74 73 72 70 68 66 64 62 61 59 57 55 53 49 46 46 46 44 41 41 40 38 36 34 33 34 35 34 34 33 32 33 33 32 32 31 31 32 32 31 30 29 28 27 28 29 32 34
83 83 83 82 81 80 80 79 78 77 76 76 75 74 73 71 69 68 66 64 63 61 60 58 55 52 49 46 45 44 43 43 41 40 37 35 33 32 31 31 32 32 33 32 31 33 33 32 31 30 31 32 32 31 30 29 27 26 26 26 29 32
81 81 81 80 79 79 78 77 77 76 75 75 73 72 70 68 66 65 64 63 62 61 59 56 53 49 46 44 43 42 41 40 38 36 32 30 29 28 28 28 29 30 31 31 31 32 32 32 31 30 31 31 32 32 31 30 28 26 25 25 26 29
80 79 79 78 78 77 77 76 76 75 75 73 71 70 68 67 65 64 63 62 61 60 57 54 52 49 45 43 41 39 35 32 31 28 25 24 24 24 24 25 27 28 29 30 31 31 32 32 30 29 30 30 32 33 31 30 28 26 26 25 26 28
79 79 78 78 77 77 76 75 75 74 73 71 70 69 68 67 64 62 61 60 59 57 54 52 50 47 44 41 39 33 24 22 24 23 20 19 19 20 20 22 24 25 28 30 30 31 32 32 29 29 30 31 33 34 32 31 29 28 28 28 28 28
78 78 78 77 76 76 75 74 73 73 72 71 69 67 66 64 62 60 59 57 56 54 51 48 46 42 39 37 32 24 20 22 26 26 22 19 18 18 18 19 20 22 26 29 30 30 31 31 29 28 30 32 35 34 33 32 30 29 30 31 31 31
78 77 77 76 75 74 74 73 72 71 70 69 67 65 63 61 60 58 56 54 52 50 47 44 40 37 34 31 25 22 23 26 28 27 24 22 22 21 20 19 19 21 24 27 29 30 30 30 29 29 30 32 34 33 32 32 31 31 32 33 34 34
77 76 75 74 74 73 72 70 70 68 67 65 64 62 59 58 57 55 53 51 49 47 43 39 34 32 31 28 25 24 25 27 27 26 25 25 25 25 25 23 22 22 24 26 28 28 29 30 30 30 30 32 33 32 32 32 31 31 32 33 34 35
75 75 74 73 71 70 69 68 67 65 64 62 60 58 56 55 53 52 49 47 45 42 37 34 29 28 29 30 29 27 27 29 30 30 29 27 27 27 26 25 24 23 24 26 26 27 28 30 31 31 32 33 34 34 34 33 32 32 32 32 33 33
72 72 71 70 68 67 65 64 63 61 60 57 56 54 52 51 50 48 45 42 42 37 33 32 29 29 31 31 32 31 31 32 34 35 33 30 29 28 27 27 26 24 22 24 24 24 25 28 31 33 34 35 37 37 36 34 33 32 31 30 30 30
69 67 66 65 64 63 61 60 58 57 55 53 52 51 49 47 46 45 42 39 39 35 32 31 31 32 34 32 32 33 35 36 36 38 36 34 31 29 28 27 27 24 22 23 22 22 23 26 29 33 36 37 39 40 37 35 31 28 26 26 26 26
64 62 61 60 59 58 56 55 54 52 51 50 49 47 46 44 42 41 39 37 37 34 32 32 33 33 33 34 34 34 37 40 39 38 37 36 34 30 28 26 26 25 24 24 23 23 24 26 29 33 36 37 39 39 37 34 28 24 22 20 19 21
59 57 56 55 54 53 52 51 50 49 48 46 45 44 42 41 39 38 36 35 35 34 32 33 35 36 36 37 37 36 38 40 40 40 38 37 37 34 29 27 26 26 25 24 24 25 25 27 28 32 36 38 38 37 35 33 29 26 23 19 17 18
53 52 51 50 49 49 48 47 46 46 44 43 42 41 40 39 37 36 34 34 33 33 33 32 34 36 38 38 38 38 38 39 40 40 40 39 39 36 29 27 27 27 26 24 24 25 26 26 27 30 34 37 37 35 35 34 30 27 25 23 20 19
47 47 47 46 46 45 45 44 43 42 41 40 39 38 37 37 36 34 33 33 33 33 32 32 33 34 35 36 38 40 40 40 40 41 40 40 40 38 32 29 28 27 27 25 25 26 26 26 26 28 31 33 34 34 36 36 31 28 27 27 25 23
43 43 43 43 43 43 42 41 40 39 38 37 36 36 35 34 34 34 33 32 32 32 31 31 32 33 34 34 36 38 39 41 41 41 40 40 41 40 37 34 31 27 27 27 27 27 27 26 25 25 27 29 29 32 35 37 34 31 31 30 30 29
40 40 40 41 41 41 40 39 38 37 36 35 34 34 33 33 32 32 32 31 31 31 31 31 31 32 33 33 34 35 36 38 40 41 41 41 41 41 40 39 35 30 28 28 29 28 28 27 26 26 26 26 27 30 33 35 35 33 32 32 32 32
37 38 38 39 39 39 38 37 36 35 34 33 33 32 32 31 31 31 31 30 30 29 29 30 31 31 32 32 33 33 34 35 38 40 41 41 41 40 40 39 37 33 30 29 30 30 30 30 29 29 28 27 28 30 32 35 36 35 34 33 32 32
35 36 37 38 38 37 37 36 35 34 33 32 32 31 31 30 30 30 30 29 29 29 29 29 30 31 31 32 32 32 33 34 35 38 40 41 41 39 39 39 35 34 32 30 32 32 31 32 32 32 31 29 29 31 32 34 34 34 34 33 33 31
34 35 36 36 36 36 35 34 33 32 32 31 30 30 30 29 29 29 29 29 29 29 29 30 30 30 31 31 31 31 32 33 34 36 39 42 42 41 41 41 38 37 35 33 34 35 34 33 33 34 33 29 28 30 31 31 30 30 31 31 31 31
33 34 34 34 34 34 33 33 32 31 31 30 30 29 29 29 29 29 29 29 29 30 30 30 30 30 30 30 31 31 31 32 34 35 39 43 44 42 42 43 42 41 40 36 35 37 38 36 35 36 35 31 31 35 35 33 32 31 32 32 31 30
31 32 32 32 32 32 32 32 31 31 31 30 30 30 29 29 30 30 30 30 30 30 31 31 30 30 30 30 31 31 31 32 33 35 38 42 43 43 43 43 42 42 42 40 37 37 39 40 38 39 38 35 37 42 41 40 38 36 35 35 33 31
29 30 30 31 31 32 32 32 32 31 31 31 30 30 30 30 30 31 31 31 31 31 31 31 31 30 30 31 31 31 31 32 33 35 37 40 42 42 43 45 44 43 43 42 40 39 40 42 42 42 41 39 42 46 45 44 44 40 37 36 35 34
29 29 29 30 31 32 33 33 33 33 32 32 31 31 31 31 31 31 32 32 32 32 32 31 31 31 31 31 31 32 32 32 33 34 36 39 41 41 43 45 47 46 44 44 43 43 43 44 43 43 43 43 45 48 48 48 48 44 40 39 38 37
32 31 31 31 32 32 33 34 34 34 33 33 33 32 32 32 32 32 32 32 32 33 32 32 32 32 32 32 32 32 33 33 33 34 36 38 40 42 43 45 48 48 48 47 45 45 46 46 46 45 46 47 47 48 48 48 48 46 44 43 41 41
34 34 33 33 34 34 34 35 35 34 34 34 34 34 33 33 33 32 32 33 33 33 33 33 33 33 32 32 33 33 33 34 34 35 36 37 39 41 42 44 47 49 51 51 48 46 47 48 48 49 49 50 49 49 49 49 48 47 46 46 46 45
36 36 35 35 35 35 35 36 36 36 36 35 35 35 35 35 34 34 33 34 34 34 34 34 34 34 34 34 34 34 35 35 36 36 36 37 38 40 42 43 46 48 53 55 53 49 49 50 49 50 51 53 52 51 51 51 50 50 49 48 48 48
39 38 37 37 36 36 36 37 37 38 37 37 36 36 36 36 36 36 35 35 35 35 36 36 36 36 35 35 35 36 36 36 37 37 38 38 39 40 41 43 45 47 51 55 57 54 51 52 52 51 52 54 55 54 54 53 52 52 51 51 51 50
43 42 41 40 39 38 38 38 38 39 38 38 38 38 38 37 37 38 38 37 36 37 37 37 37 38 38 37 37 37 38 38 38 38 39 39 39 40 41 42 44 46 49 53 57 57 54 53 54 54 54 55 56 55 55 55 55 54 54 54 53 53
46 45 44 43 42 41 40 40 40 40 40 40 40 40 39 39 38 38 39 39 38 38 38 39 39 39 39 39 39 39 39 40 40 40 40 40 41 41 42 43 44 46 48 51 54 57 55 53 54 56 57 57 58 58 58 57 57 57 57 57 57 57
47 47 46 46 45 44 43 42 42 42 42 42 42 42 41 41 40 40 40 40 40 40 41 41 41 41 40 40 40 40 41 41 41 41 41 42 42 43 43 44 45 46 47 50 52 55 56 55 54 56 58 60 61 62 62 61 61 60 59 59 59 60
49 48 48 48 48 47 46 45 45 45 44 44 43 43 43 43 43 43 42 42 42 42 42 43 43 43 43 43 42 42 42 42 42 42 43 43 44 44 45 45 46 47 48 49 51 53 55 55 55 56 57 60 63 65 65 65 65 64 63 62 61 61
51 51 51 50 50 50 50 48 48 47 47 46 46 45 45 45 46 46 45 45 44 44 44 45 45 46 46 45 45 44 44 43 43 44 44 45 45 46 47 47 48 48 49 50 51 53 55 56 56 56 57 59 62 65 67 68 68 68 67 67 65 64

ECMWFFLT2_250_spd_030.txt.gz
Wind_Speed
89 88 86 82 79 77 78 78 76 75 75 77 76 73 74 73 70 66 65 63 59 57 56 55 53 54 52 50 50 49 50 49 46 46 47 49 50 48 48 44 41 41 41 39 37 35 34 33 32 31 29 28 28 28 28 28 27 27 27 26 27 30
86 84 82 81 80 80 81 78 73 73 72 69 64 60 60 59 56 56 57 52 50 52 49 48 52 52 50 50 50 49 47 44 44 44 47 51 52 49 48 45 44 43 42 39 36 34 33 32 31 30 29 29 29 28 28 28 28 27 27 27 27 30
81 80 79 79 78 77 77 74 74 71 62 58 57 53 51 53 51 50 49 43 42 46 45 50 55 54 52 52 49 45 46 46 46 47 49 51 49 48 48 48 46 41 40 38 35 34 33 31 31 30 29 29 29 28 28 28 29 28 29 28 27 30
77 77 78 77 76 75 73 71 69 60 54 58 60 55 54 57 51 45 42 39 40 42 48 55 54 51 52 52 47 45 46 48 49 49 47 44 43 46 47 46 43 39 38 37 34 33 33 31 30 30 30 30 29 29 28 29 30 30 29 29 28 30
76 76 77 76 74 72 67 62 59 57 61 63 61 59 59 59 53 48 47 45 45 46 51 56 55 54 54 51 47 45 47 50 50 46 41 39 40 43 43 43 42 41 39 35 33 32 32 31 30 30 30 30 30 30 30 31 32 31 29 29 28 30
76 76 76 75 73 70 63 59 62 68 70 66 64 66 63 61 57 52 54 50 42 45 54 59 57 54 51 49 48 49 51 51 46 40 38 37 35 38 42 43 43 42 38 33 31 31 32 31 30 30 30 31 30 31 32 33 32 31 29 29 28 28
76 76 75 74 73 71 69 68 70 72 71 68 69 68 64 64 58 53 59 55 44 47 59 61 56 53 52 50 50 50 50 47 43 40 38 36 35 41 44 43 40 38 36 32 29 29 30 30 31 31 31 31 31 31 33 33 31 30 28 28 28 28
76 76 76 75 74 73 72 71 71 71 71 70 69 68 66 64 60 57 59 56 50 55 62 61 58 54 51 50 50 49 47 45 44 41 39 38 38 41 41 39 37 36 33 30 27 27 29 29 31 32 32 32 31 31 32 31 29 28 28 28 28 29
77 76 76 75 74 73 73 72 72 72 71 69 68 69 67 65 62 57 53 51 53 60 64 62 57 52 49 49 49 48 45 43 41 40 38 36 35 34 34 34 32 30 28 26 25 26 27 27 30 32 33 33 31 31 31 31 29 29 30 29 29 30
77 76 76 75 74 73 73 73 72 72 71 70 69 68 67 66 63 58 53 53 56 63 64 59 55 52 49 48 46 44 42 40 39 38 35 33 30 27 27 27 26 24 23 23 22 23 25 26 28 32 33 32 31 30 31 31 29 29 31 30 29 29
77 76 75 74 74 73 73 73 72 72 71 70 69 68 67 65 64 60 56 55 58 62 61 57 55 52 49 46 43 41 39 37 35 34 33 30 26 24 26 26 24 23 22 22 20 20 22 25 27 31 33 31 31 30 30 30 29 30 32 31 30 29
75 75 74 73 73 72 72 72 71 71 70 69 68 67 65 64 62 59 57 57 58 58 56 54 52 49 46 42 39 37 35 33 30 29 30 29 26 25 26 27 26 24 23 23 21 20 21 24 27 31 32 30 30 30 31 31 30 31 32 32 31 29
74 73 73 72 72 71 71 70 69 68 67 67 65 64 62 61 59 57 55 54 54 52 50 49 47 45 41 37 35 34 33 30 27 27 29 29 28 28 27 27 27 26 26 25 23 22 23 24 26 29 30 29 30 30 31 32 32 33 34 35 33 29
71 71 70 70 69 68 68 67 66 65 64 63 62 60 59 57 55 54 52 50 49 47 45 45 42 39 35 31 30 31 30 28 27 27 29 30 30 30 28 27 28 27 27 27 26 25 23 23 24 26 27 28 30 30 31 32 33 35 36 36 33 29
68 68 67 66 66 65 63 62 61 60 59 58 57 56 54 53 51 49 48 46 45 43 41 40 38 36 34 29 28 30 28 28 29 28 30 32 31 31 29 28 28 28 28 28 27 26 24 22 23 25 26 26 29 31 32 32 34 36 36 35 33 31
64 63 62 61 60 59 58 57 56 55 54 53 52 51 50 48 47 45 44 42 42 40 38 37 36 35 34 32 31 32 31 30 32 32 32 34 34 33 32 31 30 29 29 29 28 26 25 23 23 24 26 26 27 30 33 34 35 36 36 35 33 32
60 59 58 56 55 54 54 53 52 51 50 49 48 47 46 44 43 42 40 39 38 37 35 34 34 34 35 36 36 36 35 34 35 37 37 36 36 36 35 33 31 30 30 29 28 27 26 25 24 24 25 27 29 30 33 35 36 38 38 37 35 33
54 54 54 52 51 50 50 49 48 47 46 45 45 44 42 41 40 39 37 36 36 35 34 32 33 33 34 36 38 38 37 36 37 39 39 38 38 39 39 37 33 30 29 28 27 27 26 26 26 25 26 27 29 30 33 36 38 39 39 38 36 32
50 50 49 49 48 47 46 45 44 44 43 42 41 41 39 38 37 36 35 34 34 33 33 31 32 33 34 36 38 40 41 39 38 40 41 41 40 39 40 40 36 32 29 28 27 27 28 28 28 27 26 26 27 29 31 35 40 42 42 40 37 30
46 45 45 45 45 44 43 42 41 40 40 39 38 37 37 36 35 34 33 33 32 32 32 31 32 33 34 35 37 40 43 42 41 42 42 43 43 42 41 41 41 37 31 30 29 29 30 30 29 27 27 28 28 28 28 32 39 43 44 43 39 32
41 42 41 41 41 40 39 38 37 37 36 35 35 35 34 34 33 32 32 31 31 31 31 31 31 32 34 35 36 38 41 43 44 45 44 44 45 46 44 42 43 41 35 31 30 30 31 31 30 29 29 29 30 30 29 31 36 41 43 42 38 34
37 38 38 37 36 36 35 35 34 33 33 32 32 32 32 32 31 31 31 30 30 30 30 31 31 32 33 34 36 37 39 42 44 45 46 46 46 47 47 45 43 42 38 33 30 31 32 32 33 32 30 29 30 32 31 31 34 36 38 38 36 33
32 34 35 34 33 33 32 32 31 31 30 30 30 30 30 30 30 30 30 29 29 30 30 30 30 31 33 34 35 36 38 39 41 42 43 45 46 46 46 46 44 42 41 36 31 30 31 32 34 33 32 32 32 30 29 30 31 32 35 38 38 35
30 31 32 32 31 31 30 30 29 29 29 28 28 28 28 29 29 29 29 29 29 29 30 30 30 31 32 33 34 35 37 38 39 39 40 41 43 45 46 46 45 43 42 37 33 32 33 33 33 32 33 34 34 31 28 28 28 29 33 38 39 37
28 28 29 29 29 30 29 28 28 27 27 27 27 27 27 28 28 28 28 28 29 29 30 30 30 31 32 33 34 35 36 37 37 38 38 39 40 43 45 46 45 44 43 40 36 37 37 36 35 34 33 33 34 33 30 31 31 30 32 35 36 34
25 26 27 27 27 28 28 28 27 26 26 26 26 26 26 27 27 27 28 28 28 29 29 30 31 32 33 33 34 35 36 36 37 37 38 38 38 40 42 45 46 44 42 40 39 39 40 38 38 38 35 34 34 33 32 34 35 35 34 35 35 33
24 25 25 25 25 26 27 27 27 26 26 26 26 26 26 27 28 28 29 29 29 30 30 31 32 33 33 34 34 35 36 37 37 37 37 37 38 39 40 43 45 44 43 42 41 41 42 41 42 42 40 37 36 35 34 34 35 37 37 38 38 36
25 26 26 26 25 26 26 27 27 27 27 27 27 27 27 28 28 29 30 30 31 31 31 32 32 33 34 34 35 35 36 36 37 37 37 37 38 39 40 42 44 45 45 44 44 44 43 42 44 45 43 42 41 39 38 37 36 38 40 40 38 36
28 28 28 28 28 27 28 28 28 29 29 29 29 29 29 29 29 30 30 31 32 32 32 33 33 34 34 34 35 36 36 36 36 37 37 37 37 38 40 41 44 46 46 47 48 46 45 44 43 45 45 45 45 44 42 40 38 39 43 44 41 38
31 31 30 30 30 30 30 30 30 31 31 31 31 32 32 32 32 32 32 32 32 33 33 34 34 34 35 35 35 36 36 36 36 36 37 37 37 38 40 42 44 46 47 49 51 49 49 48 45 44 46 48 48 46 46 45 43 41 44 46 45 43
34 33 32 32 32 33 33 33 33 34 34 34 34 34 35 34 34 34 34 34 34 34 34 35 35 35 35 36 36 36 36 36 36 36 37 37 37 38 39 41 44 46 47 49 53 53 53 53 50 46 46 49 50 49 48 47 47 46 46 47 47 45
38 37 35 35 35 35 36 36 36 37 37 37 37 37 37 37 37 37 37 36 36 36 36 36 36 36 36 37 37 37 37 37 37 37 37 38 38 38 39 41 43 46 47 48 51 55 55 55 55 53 50 51 52 52 50 49 49 49 50 51 51 49
42 42 41 40 40 39 39 39 39 39 39 40 40 40 40 40 39 39 39 39 38 38 37 37 37 37 37 37 38 38 38 38 38 38 38 39 39 39 40 41 43 45 46 47 49 53 55 55 55 56 55 54 54 53 53 52 51 52 53 54 56 56
45 45 45 45 45 44 43 42 41 41 41 41 42 42 42 42 42 42 42 41 41 40 39 39 39 38 38 38 39 39 39 39 39 39 39 39 40 41 41 42 43 45 46 47 47 50 53 54 55 56 57 57 56 56 55 54 54 54 55 54 55 58
46 47 47 47 47 47 46 46 45 44 44 44 44 44 44 44 44 44 43 43 43 42 42 41 40 40 40 40 40 41 41 41 41 41 41 41 41 42 42 43 44 45 46 47 48 49 51 52 54 56 59 58 58 58 58 57 56 56 57 57 56 57
47 47 48 48 48 48 47 47 47 47 47 47 47 47 46 46 46 46 45 45 45 44 44 43 42 42 42 42 42 42 43 43 43 43 43 43 43 43 44 44 45 46 47 48 49 50 51 52 53 56 59 60 59 59 60 60 60 59 59 60 61 60
48 49 49 48 48 48 48 47 48 48 49 49 49 49 49 49 49 48 47 47 47 47 46 46 45 44 44 43 43 44 44 45 45 45 45 45 45 45 45 46 46 47 47 48 49 50 51 52 53 54 58 61 62 61 61 61 62 62 62 62 63 64

ECMWFFLT2_250_spd_033.txt.gz
Wind_Speed
83 81 82 79 74 71 69 68 66 65 67 69 68 65 62 59 56 54 52 49 48 48 47 47 46 45 47 46 45 45 45 44 45 47 47 47 48 46 42 41 43 44 42 43 42 39 38 38 37 37 36 34 32 29 27 26 27 26 26 26 27 27
81 79 77 72 67 64 63 65 65 63 64 63 59 58 55 49 49 54 53 51 50 48 47 49 48 48 50 47 44 44 43 44 47 47 46 47 47 44 43 42 42 43 45 44 39 36 36 37 37 35 33 32 31 29 27 27 27 26 25 25 26 27
77 71 64 62 62 59 59 62 61 59 60 57 53 52 49 46 50 53 50 48 46 48 51 51 50 52 52 49 46 44 44 48 49 47 46 47 46 46 46 43 42 45 46 43 37 36 37 36 34 33 32 31 30 29 28 28 28 26 24 25 27 27
72 65 59 59 59 58 57 57 58 58 57 55 51 49 48 48 48 44 45 45 43 49 54 51 51 51 50 49 47 44 46 50 51 49 46 47 47 49 48 46 46 46 44 40 38 37 36 34 33 34 34 31 30 29 29 28 27 26 24 25 27 27
69 65 60 56 55 58 58 57 58 58 55 54 52 49 48 47 43 39 42 43 44 50 53 51 49 49 49 48 45 44 46 49 50 49 46 47 48 49 48 48 46 42 39 38 38 38 35 34 35 36 34 31 30 29 29 29 28 27 26 26 27 26
65 63 61 59 58 61 60 59 61 61 56 54 53 52 49 45 41 41 44 44 45 48 48 48 47 47 48 45 44 47 48 47 46 44 43 45 47 48 47 45 42 40 40 39 38 37 36 37 38 36 34 32 30 29 30 30 29 27 27 27 26 26
63 56 56 59 60 61 62 61 61 60 58 56 53 50 46 42 42 43 45 46 46 45 45 47 48 48 46 42 45 49 49 50 49 44 43 47 49 46 44 41 41 42 40 38 37 38 40 40 39 36 34 32 29 29 30 30 29 28 28 27 25 27
67 56 52 57 62 64 63 63 63 62 61 55 48 45 44 46 49 50 50 50 47 45 45 47 50 52 50 49 50 50 50 51 49 47 47 49 47 43 41 39 39 41 39 37 38 41 42 39 37 35 33 31 29 29 30 30 30 30 29 28 27 28
71 65 60 60 64 66 64 64 65 64 63 56 50 48 47 49 53 54 53 49 44 43 46 51 57 56 53 53 50 45 44 41 40 43 45 45 45 43 41 37 32 35 38 39 40 39 38 35 33 32 31 31 29 28 29 29 30 30 30 31 31 30
74 72 68 65 65 66 64 63 61 62 63 59 54 49 47 48 52 54 54 53 50 50 54 59 60 57 53 52 49 45 42 42 40 40 44 45 45 44 42 39 35 33 33 34 34 31 30 29 28 29 29 29 28 27 29 29 29 30 31 33 33 31
77 75 72 70 69 69 69 67 64 63 59 54 52 51 51 53 58 63 62 63 60 55 56 58 58 58 56 50 50 50 48 49 41 36 46 50 47 47 45 45 45 42 35 29 27 25 25 25 24 25 26 27 27 27 29 29 28 29 31 32 31 29
78 76 74 73 72 71 71 71 70 68 63 61 59 58 58 59 64 68 65 65 62 54 52 55 59 61 59 55 56 56 53 52 45 44 55 55 50 50 47 46 46 46 39 30 26 24 23 24 23 22 23 24 27 28 30 30 28 28 30 30 30 28
76 75 74 73 72 71 70 70 69 69 68 68 67 65 66 67 68 69 67 68 66 61 60 63 66 65 62 62 61 59 58 57 56 56 58 53 48 46 43 43 42 42 39 32 27 26 25 24 22 20 20 22 25 28 28 30 29 28 30 30 30 28
72 72 71 70 70 69 68 67 67 67 67 67 67 67 68 68 68 69 68 67 66 65 65 64 65 63 59 59 61 61 58 55 55 55 51 47 43 39 37 37 37 37 36 31 27 28 28 26 23 20 19 20 23 26 25 27 29 29 30 30 29 27
68 68 67 67 67 66 65 65 64 64 65 65 65 65 65 66 66 65 64 63 62 61 61 59 58 56 50 49 57 59 54 49 49 44 36 37 36 32 32 32 31 31 31 30 28 28 29 28 25 22 20 19 22 25 24 24 27 30 32 31 30 28
64 64 64 63 63 63 62 62 62 62 62 62 62 62 62 62 61 61 59 58 58 56 56 55 54 54 51 50 54 54 48 46 47 37 25 29 31 27 27 28 28 28 28 31 32 30 29 27 26 23 20 20 22 24 23 24 27 30 32 34 33 32
60 60 60 60 59 59 59 58 58 58 58 58 58 57 57 56 56 56 54 53 53 53 53 51 51 52 52 53 53 48 42 40 41 35 28 29 31 28 27 28 29 27 27 30 33 33 30 26 24 22 21 21 23 23 22 24 27 30 32 34 33 32
56 56 56 56 56 55 55 55 54 54 54 53 53 53 52 51 51 50 50 49 49 49 48 47 48 48 48 49 48 45 43 42 39 35 32 32 33 32 31 30 29 26 24 27 32 34 31 27 24 22 21 22 23 23 23 24 26 29 32 34 33 31
52 52 52 52 52 51 51 50 50 49 49 49 48 48 47 47 46 46 45 45 45 45 44 44 44 44 45 44 44 44 44 44 40 34 31 33 34 34 33 32 30 27 27 27 29 32 31 28 26 24 23 24 23 24 26 28 28 29 31 34 33 33
47 48 48 48 48 47 46 46 45 45 44 44 44 44 44 43 42 41 41 41 41 41 41 41 41 41 41 41 41 42 41 42 42 39 37 36 34 35 37 36 32 30 31 30 29 31 29 27 25 24 25 27 26 27 31 32 32 31 31 34 34 35
43 43 43 43 43 42 42 41 41 41 40 40 41 40 40 39 39 38 38 38 38 38 38 38 39 38 39 39 39 40 40 42 44 47 47 43 37 36 39 39 36 34 35 34 32 30 28 27 28 27 28 29 30 30 32 34 33 32 32 35 37 38
38 38 38 38 38 38 38 38 37 37 37 37 37 37 37 36 36 36 35 35 35 36 36 36 36 36 37 37 38 39 40 41 44 48 51 50 45 40 40 40 39 38 36 35 35 33 30 29 31 33 32 32 33 33 34 34 33 32 33 35 38 40
35 34 35 35 34 34 35 35 34 34 34 34 34 34 34 34 34 33 33 33 33 34 34 34 34 35 36 37 37 38 39 41 42 45 49 53 52 46 44 44 42 39 35 32 34 35 33 32 34 37 38 38 37 35 35 35 34 34 35 35 37 40
32 31 31 31 32 32 32 32 32 32 32 31 31 31 31 31 31 31 31 32 32 32 33 33 33 34 35 36 37 37 38 39 40 43 46 50 53 51 49 49 47 43 38 34 34 35 34 33 34 37 39 40 39 38 38 37 35 36 36 36 38 39
30 29 28 29 29 30 30 30 29 29 29 29 29 29 29 29 29 30 30 31 31 32 32 32 32 34 35 35 36 36 37 38 39 41 43 46 50 53 52 51 51 49 45 40 37 38 37 35 34 35 37 37 37 39 41 40 38 38 37 36 38 40
29 28 27 28 28 29 29 29 28 28 28 28 28 28 28 29 29 29 30 30 31 31 31 31 31 32 33 34 35 35 35 36 37 38 40 42 45 50 53 54 53 52 50 46 42 41 40 39 36 35 35 36 37 38 40 41 40 39 39 36 36 40
29 28 28 28 28 28 28 28 28 27 27 27 27 28 29 29 29 29 30 30 30 30 30 30 30 30 31 32 33 34 35 35 36 36 37 39 41 44 48 51 54 55 54 52 49 45 43 41 39 36 35 36 38 38 38 40 41 41 41 38 36 37
30 30 30 30 29 28 28 28 27 27 27 26 26 27 28 28 29 29 29 29 29 29 29 29 29 30 30 30 31 33 35 35 36 36 37 38 39 41 43 46 49 53 55 56 55 52 49 46 42 40 39 37 38 38 37 39 41 41 43 42 40 37
32 32 32 32 31 30 29 29 28 27 27 27 26 27 27 27 28 29 29 29 30 30 30 30 31 31 31 30 31 32 35 36 36 37 37 38 39 40 41 42 44 48 51 54 57 56 54 51 46 43 43 42 40 39 38 39 39 38 40 42 41 40
35 35 35 34 33 32 32 31 30 29 29 28 28 28 28 28 28 29 29 29 30 30 30 31 32 32 32 32 32 32 34 36 36 37 37 38 39 39 40 41 42 45 47 50 55 57 55 53 50 47 46 46 44 43 42 41 39 38 39 40 40 41
39 38 38 37 35 35 34 34 33 32 32 31 31 30 30 30 30 31 30 30 30 30 31 31 32 32 33 34 34 34 35 35 36 37 38 38 39 39 40 40 41 43 45 47 51 55 56 54 53 52 49 48 46 47 48 46 43 41 40 40 40 41
42 41 41 40 38 37 37 37 36 36 36 35 35 34 33 33 33 33 32 32 32 32 32 32 32 33 33 34 35 36 36 36 37 37 38 39 39 39 39 40 41 42 44 46 48 52 55 55 55 55 54 51 49 49 53 52 48 45 43 42 42 42
43 43 43 42 42 41 40 40 39 39 38 38 38 37 37 37 37 36 35 35 34 33 33 33 33 33 33 35 36 37 37 38 38 38 39 39 40 40 39 39 41 42 43 46 48 50 52 55 56 57 58 56 52 50 53 56 54 50 48 47 46 45
44 44 44 43 44 44 44 43 43 42 41 40 40 40 40 40 40 40 39 38 37 36 35 35 35 35 35 35 36 37 39 39 39 40 40 41 41 41 41 40 40 42 43 45 47 49 51 53 55 59 60 58 56 52 52 56 57 55 53 51 50 50
45 45 45 44 45 45 45 45 45 45 45 45 44 44 44 43 43 43 42 41 41 40 39 38 37 37 37 37 38 38 39 40 40 41 41 42 43 43 42 42 41 42 43 44 46 49 51 52 54 58 61 59 57 56 53 54 57 58 57 56 55 54
45 46 46 46 47 47 47 47 47 47 47 48 49 48 47 47 46 46 45 44 44 43 43 42 41 41 40 40 40 40 40 41 41 41 42 42 43 44 44 44 43 43 44 44 45 48 51 53 54 56 60 59 57 58 58 56 55 58 60 60 59 58
46 47 47 47 48 48 48 48 48 48 49 50 51 51 51 51 50 50 48 47 47 46 46 45 45 44 43 43 43 43 43 42 42 42 43 43 44 45 46 46 45 45 45 45 45 47 50 53 55 56 58 59 57 58 61 61 58 57 59 62 63 62

ECMWFFLT2_250_spd_036.txt.gz
Wind_Speed
86 84 81 77 75 75 75 74 71 68 68 68 69 61 54 56 58 57 56 54 51 50 51 51 51 52 52 52 52 51 48 46 46 46 45 44 43 40 39 40 42 43 43 44 43 41 39 38 38 40 39 37 33 30 30 29 27 25 25 28 28 24
82 80 77 74 74 76 74 72 70 69 69 68 66 57 51 54 56 57 54 49 48 48 48 46 46 47 47 46 45 44 44 46 46 46 46 44 42 39 39 39 42 44 45 44 42 41 40 39 40 40 37 33 31 31 29 26 24 24 25 28 27 25
77 75 75 75 74 73 70 68 66 66 63 61 60 56 55 58 58 56 52 48 48 48 45 44 43 41 40 40 40 41 43 46 47 47 47 44 41 39 37 38 40 43 45 42 39 38 39 40 38 35 32 32 31 30 28 24 24 24 26 29 27 25
73 72 71 71 70 68 66 65 65 65 63 61 59 55 53 55 55 54 53 51 49 48 46 46 44 40 42 44 45 45 45 47 48 48 46 43 42 40 38 39 41 42 43 40 37 36 39 38 35 34 33 32 30 28 26 25 26 25 26 29 27 25
70 68 67 67 67 65 63 64 66 67 64 59 54 49 50 53 52 51 51 50 49 49 48 49 47 44 47 49 49 47 46 47 47 46 43 40 40 38 39 41 43 45 43 38 37 39 38 35 34 35 33 30 29 28 27 28 28 25 27 30 27 27
64 62 61 64 66 67 69 70 70 67 62 56 51 49 54 56 52 49 49 51 52 51 50 51 50 48 48 48 47 46 47 48 47 45 41 39 39 40 43 44 45 47 43 37 38 40 38 35 36 34 31 29 29 29 31 31 29 26 28 30 28 28
68 65 67 72 74 74 73 72 70 67 63 58 55 55 57 57 54 52 53 55 56 55 55 54 51 49 48 48 48 47 47 48 48 45 42 42 44 46 47 45 44 43 39 36 37 38 37 37 36 32 29 29 31 32 34 32 29 27 29 31 29 30
82 80 81 81 78 75 72 72 71 69 65 60 59 60 60 59 58 58 58 58 59 59 58 55 51 48 49 49 49 48 48 50 50 45 44 47 47 44 42 42 42 39 36 36 37 37 37 36 34 31 30 32 33 33 32 30 29 27 29 31 29 30
88 87 86 82 77 74 73 73 73 70 66 60 59 62 65 66 64 63 61 61 62 61 57 53 51 49 49 50 51 51 51 49 47 46 48 48 42 39 41 43 43 41 39 38 38 37 35 33 31 32 32 33 32 30 29 29 29 28 29 30 29 30
89 88 86 81 75 73 72 73 72 70 66 64 63 65 67 68 67 65 63 62 63 61 57 52 51 50 51 52 53 53 51 46 46 51 51 45 41 42 45 44 42 43 42 39 39 37 35 32 30 30 29 28 27 27 27 27 28 28 29 29 29 31
90 90 86 81 76 73 72 71 70 68 68 67 68 69 68 67 68 67 65 65 64 60 57 56 56 58 58 58 57 52 47 47 49 49 46 44 44 42 38 35 37 37 35 34 33 32 35 35 34 31 28 24 23 24 25 26 27 27 28 28 28 31
89 87 84 82 80 77 75 73 72 72 72 72 71 72 73 72 71 70 65 62 61 59 60 62 63 62 58 57 58 54 50 52 53 52 49 45 41 37 34 35 37 32 26 28 29 31 36 39 39 35 29 24 21 22 24 25 26 26 27 27 27 30
86 85 83 82 81 80 79 78 78 79 79 77 76 77 77 76 74 72 66 62 61 59 59 61 60 58 56 56 59 57 55 54 53 53 49 43 41 42 42 42 41 32 25 32 38 39 39 38 38 35 29 24 21 21 22 22 24 26 27 27 26 29
84 83 83 83 81 79 78 79 79 79 79 78 78 77 78 77 74 73 71 68 66 63 60 59 59 60 59 60 60 55 51 51 50 49 46 44 45 44 42 41 41 37 35 39 40 38 35 33 33 32 28 24 21 20 19 20 22 25 28 28 27 29
81 80 80 79 77 75 74 75 75 75 75 75 74 74 74 74 72 71 70 69 68 68 67 66 66 66 65 64 62 56 51 50 48 43 42 45 45 43 40 39 39 38 40 43 38 32 29 29 29 28 25 23 22 21 20 20 21 23 27 28 28 29
75 74 73 72 71 70 69 69 69 70 70 70 70 69 69 68 68 68 67 66 64 63 63 63 61 59 60 63 65 62 56 54 51 45 44 46 44 43 45 46 42 36 36 40 36 30 26 25 26 25 23 22 22 22 22 22 23 22 24 27 28 29
67 65 65 64 64 64 63 64 63 64 64 64 65 65 64 64 64 64 64 64 63 61 59 60 60 57 57 60 63 63 58 58 60 56 55 55 51 48 50 51 48 41 39 40 34 29 25 24 25 24 22 19 19 22 23 24 25 23 23 26 29 29
57 57 57 57 58 58 57 57 58 58 58 58 59 59 59 59 60 60 61 62 63 64 64 64 65 65 63 61 61 60 57 58 60 57 56 58 56 51 48 48 47 44 44 41 33 29 27 26 26 25 22 18 19 23 24 24 25 25 25 26 29 30
50 50 51 51 52 52 52 52 52 52 52 53 53 53 53 54 55 55 56 58 59 61 63 63 63 63 63 61 60 60 58 58 58 55 52 53 53 49 44 45 45 43 41 38 33 31 30 29 29 29 24 21 24 25 24 25 26 27 27 27 29 30
46 46 46 47 47 47 47 47 47 47 48 48 48 48 48 49 50 50 52 53 55 56 57 58 58 58 58 58 57 56 56 56 55 54 51 51 52 49 46 45 46 44 41 36 32 30 30 30 30 31 29 25 27 27 26 28 29 30 29 29 30 32
44 43 43 43 43 43 44 43 43 44 44 44 44 44 44 45 46 46 47 48 49 50 51 52 53 53 53 53 53 53 52 52 52 53 53 54 55 53 50 46 45 45 42 37 33 30 29 29 30 32 32 29 29 30 30 31 32 32 30 31 31 32
41 40 39 39 39 39 40 40 40 40 40 40 40 40 41 41 42 42 42 43 44 45 46 47 48 48 49 49 50 49 49 50 50 52 55 57 58 56 51 46 44 44 42 38 36 34 31 30 31 32 33 33 32 32 33 33 33 32 31 32 32 31
40 39 37 36 36 36 36 36 36 36 36 36 36 37 37 38 38 38 38 39 40 40 41 42 43 44 45 46 46 46 47 48 48 50 53 56 58 57 54 48 46 46 44 41 39 38 36 33 33 34 35 35 34 35 35 35 34 33 33 33 34 33
40 38 36 34 33 33 33 34 34 34 33 34 34 34 34 34 34 34 35 35 36 37 37 39 40 41 42 42 43 43 44 45 46 47 49 52 54 57 58 55 51 50 48 45 43 41 39 37 36 36 37 38 37 37 38 38 37 36 35 35 35 35
41 38 36 34 32 32 31 32 32 32 32 32 32 32 31 31 32 31 32 32 33 33 34 35 37 38 39 39 40 41 42 43 44 45 47 49 50 54 57 57 56 55 50 45 44 43 41 40 39 38 39 41 40 40 41 41 40 39 39 38 37 36
42 40 37 35 33 32 31 31 31 31 30 30 30 30 30 30 30 30 30 30 31 31 32 33 34 36 37 38 38 39 40 41 42 43 45 47 48 50 52 54 56 57 53 47 45 45 43 41 41 39 40 43 42 43 44 44 43 43 42 41 40 39
43 42 40 36 35 34 32 31 31 30 29 29 29 29 29 29 29 29 29 29 30 30 31 33 34 35 36 36 37 37 38 39 41 42 43 45 46 48 50 51 54 57 56 52 47 46 44 42 42 41 41 43 43 42 44 46 46 46 46 44 43 41
43 44 42 39 37 36 34 33 31 30 29 28 28 28 28 29 29 29 29 29 30 31 31 32 33 34 34 34 35 35 36 38 39 40 41 43 44 45 47 49 52 55 57 56 53 51 47 43 43 43 42 44 44 41 42 46 48 49 48 47 46 44
43 45 44 41 39 38 37 35 33 31 30 30 28 28 28 28 28 29 29 29 30 30 31 32 32 33 33 33 34 34 34 35 37 38 39 41 42 43 45 46 48 51 54 57 57 55 53 48 46 46 44 46 45 41 40 44 46 48 48 48 48 47
44 46 46 43 42 41 39 38 36 34 32 32 31 30 29 28 28 28 29 29 30 30 31 31 32 32 33 33 33 33 33 34 34 35 37 39 40 41 42 43 45 46 49 52 54 55 56 53 50 49 47 47 46 43 41 43 44 45 46 47 48 49
46 46 47 45 44 44 43 41 39 37 36 35 34 33 32 30 29 29 29 29 30 30 31 31 32 32 33 33 33 34 34 35 34 34 35 37 39 41 41 41 42 43 44 47 50 52 54 55 54 53 52 50 48 45 44 44 44 45 46 46 47 49
47 47 47 46 45 45 45 43 42 41 40 38 37 36 35 33 32 30 30 30 30 30 31 31 32 33 33 33 34 34 35 35 35 34 34 34 37 39 41 41 41 41 42 43 45 48 51 54 55 57 57 55 52 49 47 46 45 44 46 47 47 48
48 47 47 47 47 46 46 45 45 44 43 42 40 39 38 37 36 34 32 31 31 31 31 31 32 32 33 34 34 35 35 36 36 36 35 35 36 38 40 41 41 41 42 43 43 45 47 51 54 56 58 59 58 55 52 50 49 46 46 47 48 49
45 44 46 47 47 47 47 46 46 46 45 45 44 43 41 40 39 38 36 35 34 33 32 32 32 33 33 34 35 35 36 36 36 36 37 37 37 38 39 40 41 42 43 43 44 44 45 47 51 54 56 59 61 61 59 56 53 51 49 48 49 49
41 41 44 45 46 47 47 47 47 46 46 46 45 45 44 43 43 42 40 38 37 36 35 35 34 34 35 35 36 36 37 38 38 38 38 39 39 40 40 41 42 42 42 43 44 45 46 46 48 51 54 57 60 62 64 62 59 56 53 50 50 50
38 39 43 45 45 47 47 47 47 47 47 47 46 46 46 45 45 44 43 41 41 40 39 39 38 37 37 37 38 38 38 39 39 40 40 40 41 41 41 41 42 43 43 43 45 46 46 47 48 50 52 55 57 60 63 64 63 62 59 54 51 51
34 35 43 47 48 48 49 49 48 47 47 46 46 46 46 46 46 46 46 44 44 43 43 42 42 41 41 40 40 40 40 40 40 40 41 41 42 43 43 43 43 43 44 44 45 46 47 47 48 50 52 53 55 58 61 62 64 65 64 60 55 52

ECMWFFLT2_250_spd_042.txt.gz
Wind_Speed
95 94 94 93 89 84 81 79 79 80 81 71 57 55 56 55 55 55 55 54 54 55 56 58 60 60 59 54 48 48 49 51 55 57 57 55 51 49 48 46 44 42 39 37 37 36 36 37 37 36 35 34 35 35 35 34 33 32 31 29 30 30
93 92 91 90 87 84 80 79 80 79 78 73 67 67 69 69 67 66 65 63 62 62 63 64 64 64 63 56 48 46 50 53 54 54 54 51 48 47 47 47 45 43 40 39 38 38 37 38 38 36 35 34 34 34 36 35 34 33 32 30 28 29
90 90 89 86 83 81 78 77 76 75 77 81 82 82 81 79 77 76 73 71 70 70 70 68 67 67 66 61 52 49 53 53 52 52 52 50 47 48 49 50 49 45 42 41 40 40 40 39 39 38 36 34 33 34 36 37 35 33 31 30 28 28
87 86 84 81 77 75 74 73 72 73 76 82 85 86 84 82 80 79 76 74 74 74 74 72 71 71 69 64 56 54 56 54 54 53 51 50 49 49 50 51 50 46 44 43 42 42 42 41 40 39 37 35 36 37 37 37 35 32 31 30 29 29
82 81 79 76 73 71 71 71 71 72 74 77 79 79 78 77 76 75 74 73 73 74 74 73 71 69 67 64 61 60 60 59 59 56 52 51 51 51 51 51 49 46 45 45 45 44 43 42 40 39 37 36 38 38 38 39 36 32 31 31 31 32
77 76 74 72 71 70 70 71 72 72 72 71 69 68 68 68 67 67 68 69 70 71 72 70 66 65 66 65 66 67 66 64 63 60 54 51 51 52 54 54 51 49 48 48 46 44 42 41 40 39 37 36 36 35 37 38 36 32 31 31 33 34
74 73 72 70 70 70 71 72 73 72 71 68 66 64 63 63 64 65 66 68 69 69 69 66 63 64 67 68 70 71 70 68 65 62 58 54 53 53 55 57 55 53 52 51 49 47 44 42 40 39 38 35 34 34 35 37 35 33 33 34 35 35
71 71 71 70 71 72 72 72 73 72 71 69 65 63 61 61 62 64 65 67 68 68 68 67 66 67 69 71 72 72 71 70 67 63 61 59 56 53 54 57 59 58 55 54 52 49 46 45 42 41 39 38 37 35 34 36 36 35 35 35 35 34
69 69 70 71 71 72 72 72 72 72 71 68 63 59 58 58 59 61 63 66 67 68 69 70 70 71 72 74 73 73 73 72 69 66 63 60 57 54 53 56 59 60 56 53 50 47 47 46 45 43 42 42 41 39 37 37 38 37 37 37 35 32
68 67 68 70 71 71 73 73 73 72 69 66 64 61 60 60 59 59 61 64 66 68 69 70 71 71 72 73 73 74 75 75 73 70 67 63 59 55 54 55 58 58 54 50 48 47 47 47 45 44 43 43 42 40 40 40 40 40 39 37 33 30
67 65 66 68 70 72 73 74 75 73 69 67 67 66 64 61 58 57 59 62 65 67 69 70 71 71 71 74 75 76 77 77 76 74 69 65 62 58 56 56 57 57 53 50 48 48 48 47 45 43 41 40 39 39 39 38 39 39 37 35 32 31
61 60 63 67 70 72 73 75 76 76 75 75 74 73 70 65 63 63 65 69 69 69 70 72 73 74 76 77 78 78 78 76 74 72 68 64 61 58 57 57 56 55 51 49 49 49 49 48 47 44 42 41 40 38 35 35 35 34 35 34 33 33
53 52 57 62 67 70 72 75 77 78 79 80 81 80 78 75 74 75 78 81 78 76 76 77 80 81 81 81 80 78 76 73 71 69 66 63 60 58 56 55 54 52 50 49 49 51 51 51 50 49 47 45 41 36 34 34 33 33 35 35 33 33
48 52 58 61 63 65 69 71 73 76 79 81 83 84 84 83 83 83 84 84 83 82 82 84 85 85 84 81 78 75 72 70 68 66 64 62 60 57 56 54 53 51 50 50 51 53 53 53 52 51 49 44 40 37 36 35 35 35 36 36 36 35
44 50 55 58 59 60 63 66 69 72 75 78 80 81 82 83 83 83 83 82 83 83 84 84 83 81 79 76 73 70 68 66 64 62 61 59 56 55 54 53 52 52 52 52 53 53 53 53 52 50 46 41 39 38 36 35 36 36 37 39 40 39
43 45 47 51 53 54 55 57 61 65 69 73 75 77 78 79 80 80 81 81 80 79 77 75 74 72 70 68 67 65 63 61 59 58 57 56 55 54 54 54 54 54 54 53 53 53 53 54 52 48 44 41 40 38 37 36 36 37 38 39 39 38
43 41 42 45 47 48 49 50 52 56 59 63 66 68 70 71 71 72 72 71 70 68 67 66 65 65 64 63 62 61 59 57 55 54 54 55 55 56 56 56 55 55 54 53 53 53 53 53 50 46 42 41 41 40 39 37 37 38 38 37 35 35
44 41 40 42 45 47 48 48 50 51 52 54 56 57 58 59 60 61 62 62 62 62 61 61 61 60 59 58 57 56 55 53 53 52 53 54 55 55 56 56 54 52 50 51 52 52 52 50 46 43 41 42 42 41 41 39 39 40 39 36 33 33
40 39 38 40 42 43 45 47 49 50 50 50 51 52 53 55 56 56 57 58 59 58 58 58 57 56 54 54 53 52 51 51 51 51 51 52 53 54 55 55 55 53 50 50 51 50 48 46 43 41 41 42 43 44 44 42 42 44 43 38 34 33
32 34 34 36 38 39 40 42 45 47 48 48 49 50 52 54 54 55 55 56 56 55 55 54 52 50 49 49 49 49 49 49 49 49 50 51 52 53 54 55 56 56 55 55 55 53 49 46 44 43 43 44 45 46 47 45 45 44 43 40 35 34
29 31 32 34 36 37 38 39 41 43 45 46 48 50 52 54 55 54 53 53 52 52 51 49 48 46 45 45 45 45 46 46 47 48 49 50 51 52 54 55 56 56 56 57 59 58 57 54 51 48 46 46 47 48 48 47 46 43 40 39 37 35
32 34 35 37 38 39 40 41 42 44 46 47 49 50 52 53 53 52 51 50 49 48 47 45 43 42 42 41 41 42 42 43 44 46 47 48 49 51 52 54 55 56 56 57 58 59 59 59 56 53 50 48 48 48 48 46 44 42 40 39 38 37
37 38 40 41 42 44 44 45 46 47 49 50 51 52 52 51 50 48 48 47 46 44 43 42 40 39 39 38 38 39 40 40 41 43 44 46 47 48 50 51 53 54 56 56 56 57 57 57 56 55 53 51 50 51 50 45 42 41 40 40 40 39
44 43 44 45 47 49 49 49 49 50 51 53 53 53 52 49 47 46 45 45 45 43 41 39 38 37 36 36 36 37 37 38 39 40 41 43 44 46 47 48 50 51 53 55 57 57 58 58 57 57 56 55 53 52 51 46 42 41 41 41 42 42
51 50 49 50 51 53 54 53 53 53 54 54 54 54 51 48 46 45 44 45 44 43 41 38 37 35 35 34 34 35 35 35 36 38 39 40 41 42 44 46 47 48 50 52 55 56 58 58 59 59 59 56 53 51 50 46 42 42 43 42 43 43
58 56 55 54 54 55 57 57 57 57 56 56 56 55 51 47 44 44 45 46 46 44 41 39 36 35 34 33 33 33 33 34 34 36 37 38 39 40 41 43 44 46 47 48 50 52 53 54 55 55 54 53 52 50 48 46 43 43 44 43 43 44
61 60 59 57 55 55 57 58 59 59 58 58 58 54 48 44 43 44 45 46 46 44 42 40 38 35 33 32 32 32 32 32 33 34 35 36 37 38 39 40 41 42 44 45 45 46 47 48 49 49 49 50 51 51 49 47 45 44 44 44 43 44
62 61 60 58 55 54 55 57 58 57 56 57 55 49 44 43 44 45 44 45 46 45 43 41 39 37 34 33 31 31 31 31 31 32 33 34 35 37 37 38 39 40 40 41 42 42 43 44 45 46 46 47 48 50 50 48 45 44 45 45 44 44
63 61 60 58 55 54 55 56 56 56 56 54 49 44 43 45 46 47 46 45 47 48 44 41 40 38 36 35 33 31 31 30 31 31 32 33 34 35 36 36 37 37 38 38 39 40 40 41 42 43 43 44 46 48 50 48 45 45 46 46 46 45
65 64 62 59 56 54 55 56 56 56 53 49 45 44 46 47 48 47 47 47 49 48 45 41 40 39 37 36 35 33 32 31 31 31 31 32 33 34 35 35 35 35 36 36 37 37 38 38 39 40 41 42 43 45 49 51 49 48 47 47 47 47
64 64 63 60 56 54 54 54 53 52 48 45 45 46 48 48 48 48 48 48 47 45 43 41 40 39 38 37 36 35 34 32 31 31 31 31 32 33 34 34 35 35 35 35 35 35 36 36 36 37 38 39 41 42 46 51 53 52 49 48 48 48
61 61 59 56 53 52 51 51 49 48 47 47 47 47 48 48 48 47 46 44 42 41 40 40 39 39 39 38 37 37 36 35 34 32 31 31 31 31 32 33 34 34 34 34 34 34 34 34 35 35 36 38 39 40 42 46 52 54 53 50 48 48
57 57 55 51 50 50 50 50 48 46 47 48 46 45 45 45 43 42 41 39 37 36 35 36 37 38 39 39 39 38 37 37 36 35 33 32 31 31 31 32 33 33 34 34 34 34 34 33 33 33 35 36 37 38 39 42 47 52 54 53 50 48
51 51 49 47 47 49 50 50 48 47 47 45 42 38 37 38 37 37 37 35 34 33 32 33 33 35 37 39 40 40 39 38 38 37 36 35 33 32 32 32 33 33 34 35 35 36 36 35 33 33 33 34 36 37 38 39 42 47 51 53 53 49
41 39 40 42 44 46 48 48 48 48 46 43 40 37 35 35 35 35 35 35 35 34 34 33 33 34 35 37 39 40 40 40 39 39 38 37 36 35 34 33 34 34 35 35 36 37 37 37 36 35 34 34 35 36 38 38 39 42 46 50 53 52
34 31 34 38 42 45 46 47 49 48 44 42 42 42 39 39 39 39 38 37 37 38 37 36 36 36 35 36 37 39 40 41 41 40 40 39 39 38 37 36 36 36 37 37 37 37 38 38 38 38 37 35 35 36 38 39 39 40 42 46 50 52
35 35 38 39 42 45 45 46 47 45 42 41 42 42 42 42 43 44 44 43 41 41 41 40 40 39 38 37 37 38 38 40 41 42 41 41 41 41 40 39 39 38 39 39 39 39 39 39 39 40 39 38 37 37 38 40 40 40 41 43 46 49

ECMWFFLT2_250_spd_045.txt.gz
Wind_Speed
91 92 93 94 95 96 96 96 96 96 93 90 88 85 82 78 74 71 68 66 65 65 68 71 73 73 69 65 66 69 70 69 65 61 59 57 55 54 54 53 52 51 51 49 47 44 39 37 38 38 38 38 38 37 36 34 32 32 30 29 30 32
92 93 94 95 96 95 94 94 94 93 90 86 83 79 75 72 68 66 64 63 63 63 64 66 69 70 69 70 69 67 64 62 60 58 56 54 53 53 53 52 52 52 51 49 46 42 39 38 38 38 38 38 39 38 35 33 33 33 30 28 30 33
91 91 92 92 92 91 91 91 89 87 85 81 78 75 71 68 66 63 62 62 62 62 62 62 62 62 62 62 60 57 55 55 55 54 52 50 49 50 51 52 52 51 49 46 43 41 40 40 39 38 38 39 40 39 35 34 35 33 31 30 31 32
87 87 87 87 87 87 86 85 84 81 80 77 74 71 68 66 64 63 63 62 62 61 60 59 56 54 53 51 49 49 50 51 50 49 48 47 47 48 51 53 53 51 48 45 43 42 41 41 41 40 40 41 41 39 36 36 36 35 33 31 31 30
82 81 81 82 82 81 80 80 79 77 75 73 71 69 66 65 64 64 63 62 62 61 58 54 50 48 46 45 45 47 49 48 47 46 45 46 48 50 53 55 56 54 51 48 46 45 43 43 43 44 44 44 43 41 39 38 37 36 35 33 31 30
76 76 77 78 77 77 76 76 76 74 72 70 69 67 66 65 64 64 64 63 62 60 55 51 48 46 45 44 44 45 46 45 45 45 46 49 51 53 56 57 57 56 54 52 49 47 46 45 45 46 46 46 44 43 42 40 37 36 36 34 31 30
73 73 73 73 73 73 73 73 74 72 71 69 68 67 66 66 64 64 65 64 63 59 53 50 49 49 47 45 43 43 43 44 46 48 49 51 53 55 56 57 57 57 56 54 51 49 48 46 46 46 46 45 44 44 43 40 37 37 37 36 33 31
70 71 71 71 71 71 71 71 72 71 70 69 67 66 66 66 65 64 64 64 63 60 54 52 52 52 49 46 44 44 45 46 48 50 52 53 54 55 57 58 58 58 57 54 52 51 49 47 46 46 46 45 44 44 43 41 39 38 38 37 35 33
69 69 69 69 69 69 69 69 69 69 69 68 66 66 65 66 66 65 64 64 64 62 58 56 56 54 51 49 48 49 49 48 49 52 54 55 55 58 60 61 61 60 58 55 53 52 50 49 47 46 46 45 45 44 43 42 40 38 39 39 36 34
68 67 67 67 67 66 66 67 67 67 68 67 66 65 66 66 66 66 65 65 64 62 59 57 56 55 55 54 54 54 54 54 56 59 59 59 59 61 62 64 64 63 59 57 55 52 50 49 47 46 45 44 43 43 42 42 41 40 39 39 36 34
65 65 64 64 63 63 63 64 65 65 66 66 66 66 66 66 67 67 66 65 62 59 56 56 57 58 59 59 60 62 63 63 65 66 65 64 64 64 65 66 67 65 62 58 55 52 49 48 47 46 44 42 41 41 41 41 42 41 39 38 36 34
61 61 60 59 58 58 59 61 62 64 65 66 66 66 66 66 66 66 65 63 60 57 56 58 62 64 64 63 62 64 65 66 66 66 67 67 67 67 67 67 66 64 61 58 54 49 47 47 47 46 44 41 41 41 42 42 41 40 39 37 36 36
57 55 54 54 54 54 56 58 60 62 63 64 64 64 64 65 65 65 65 62 61 60 61 64 66 65 62 59 60 61 60 61 63 64 66 66 66 65 64 63 62 60 58 54 50 47 46 46 46 44 43 41 42 42 42 41 40 40 40 40 39 37
54 51 49 49 50 52 54 56 57 58 58 58 58 59 60 62 62 63 63 63 63 63 63 64 63 60 57 56 57 58 56 57 59 61 62 62 62 62 60 59 58 56 54 51 48 46 45 46 44 42 42 42 43 43 42 42 41 41 42 43 41 38
49 47 45 44 46 49 51 52 53 52 52 51 51 52 53 54 56 58 58 58 60 59 58 57 54 53 52 51 49 49 52 55 57 58 59 60 59 59 59 58 57 54 51 48 46 45 44 44 43 42 42 42 43 44 43 43 43 44 45 44 41 39
44 43 42 42 44 46 47 47 47 45 44 44 44 45 45 45 47 49 49 49 48 48 47 44 44 45 45 45 45 48 55 58 57 57 56 56 56 57 57 56 54 51 47 45 42 41 42 42 43 43 43 43 44 45 45 45 45 45 44 42 41 40
41 41 40 41 41 42 42 42 42 41 40 40 41 41 41 41 42 42 42 41 39 39 40 40 42 44 46 48 50 52 56 57 56 55 54 54 54 54 53 51 49 46 43 42 40 39 40 41 42 44 44 44 44 45 46 46 45 44 42 41 41 40
38 38 38 38 39 40 40 41 41 40 40 40 39 39 39 40 40 40 38 38 38 39 40 42 44 46 47 49 52 53 54 55 55 54 53 52 51 49 48 46 44 42 41 41 41 40 41 42 43 44 45 45 45 46 47 46 44 43 42 42 41 41
36 36 36 36 37 39 40 39 39 39 40 40 39 39 39 39 39 38 37 38 39 41 43 44 45 47 48 50 51 52 53 53 52 51 50 48 46 45 44 42 41 41 41 41 42 42 43 44 45 46 45 45 45 46 47 46 44 42 42 43 43 42
33 30 28 28 30 32 33 35 35 36 37 38 37 37 37 36 36 37 38 40 42 43 45 46 47 49 49 50 50 49 49 48 47 46 45 44 42 42 41 40 39 39 40 41 42 43 44 45 45 44 44 44 44 45 46 45 43 43 43 44 44 44
31 27 24 22 24 26 27 29 30 31 33 33 33 33 34 35 37 39 40 41 43 44 46 47 49 49 49 48 47 46 45 44 43 42 41 39 38 38 38 37 37 38 39 40 41 42 43 44 43 40 40 42 43 44 46 46 45 45 45 45 46 46
32 31 28 24 23 24 25 27 27 28 30 31 33 34 35 37 38 40 41 42 43 44 46 47 48 48 48 47 44 42 41 40 40 39 38 36 35 35 35 35 35 36 37 39 40 41 43 44 44 44 43 44 44 44 45 45 45 45 47 47 48 47
32 33 31 28 26 26 28 29 30 31 33 35 37 38 39 39 40 41 42 43 43 44 46 47 47 47 46 44 42 40 38 37 37 36 35 34 33 32 32 32 33 34 35 37 39 40 41 42 44 46 47 49 50 49 48 47 45 45 46 47 48 47
35 35 36 34 33 33 34 35 35 36 38 40 42 42 42 43 43 43 43 43 44 45 46 47 47 47 45 42 40 38 37 36 36 35 33 32 31 30 30 30 31 32 32 35 37 38 40 41 42 44 46 49 51 52 52 52 51 50 48 47 47 47
44 42 42 42 41 41 42 42 42 43 45 46 46 45 45 45 44 43 42 42 43 44 46 47 48 47 45 42 39 37 37 37 36 34 32 31 29 28 27 28 29 30 30 32 34 35 37 39 40 42 44 46 48 50 51 52 52 52 50 48 47 45
54 52 50 49 48 48 49 49 50 50 50 48 46 45 46 46 45 44 42 41 42 43 45 47 47 46 45 43 41 38 38 38 37 35 33 30 28 27 26 26 26 27 28 29 31 33 34 36 37 38 40 42 44 46 48 49 50 49 48 45 44 43
55 58 58 57 55 55 55 56 56 55 52 48 46 45 46 47 47 47 45 44 43 44 45 45 45 45 44 43 42 41 40 39 38 35 33 30 28 27 25 25 24 25 25 27 28 30 31 33 34 35 36 37 39 40 42 44 45 46 44 41 41 41
50 55 59 61 62 62 61 60 59 57 54 51 48 47 47 48 49 49 48 46 45 45 46 46 45 43 43 43 43 43 43 41 39 36 33 30 28 27 26 25 24 24 24 25 26 27 28 29 30 31 33 34 35 36 37 38 39 40 40 39 40 41
50 52 57 60 63 64 63 61 60 59 57 55 53 51 50 50 49 50 49 47 47 48 48 47 44 42 42 43 44 44 43 41 39 37 33 31 28 27 26 25 25 25 24 24 25 25 26 27 28 29 30 31 32 33 34 35 35 36 37 38 41 42
52 53 56 59 60 62 62 61 61 60 60 58 57 55 54 52 51 51 50 48 48 49 49 47 44 42 42 43 43 42 40 39 39 37 35 32 30 27 26 25 25 25 25 25 25 25 26 27 27 28 28 29 30 31 32 33 33 34 35 37 41 44
54 55 56 58 60 61 62 61 61 61 61 61 60 59 58 56 54 53 52 50 49 49 48 46 44 42 42 41 41 39 38 38 38 37 35 33 32 30 28 27 26 26 26 26 26 26 26 27 28 28 28 29 29 30 31 32 32 33 34 36 39 44
55 55 56 57 59 60 61 61 60 61 61 61 62 62 61 58 55 54 52 50 49 48 46 45 43 41 39 38 36 35 36 36 36 36 35 34 33 32 31 30 28 27 27 26 26 26 27 27 28 28 28 28 28 29 30 31 32 32 33 34 37 42
55 55 56 57 58 59 60 60 61 61 61 60 60 60 59 56 54 52 50 49 48 46 44 43 41 38 36 34 33 32 33 34 34 34 34 34 34 33 33 32 31 30 29 28 28 27 27 28 28 28 28 28 28 28 29 30 31 32 33 34 35 39
52 52 54 56 57 59 60 60 60 60 59 58 57 55 54 53 51 50 49 47 46 45 43 41 38 36 35 33 31 30 30 31 31 32 33 34 34 34 34 34 33 33 32 31 30 29 29 29 29 29 29 29 29 29 29 29 30 31 32 34 35 37
44 44 46 49 51 53 55 56 57 56 56 54 53 52 52 51 50 49 48 47 46 45 43 41 38 36 34 33 32 31 31 31 31 31 32 32 33 34 35 35 35 35 34 34 33 32 31 30 30 30 30 30 30 30 30 30 30 30 31 32 34 36
41 39 40 43 46 49 50 50 51 52 52 50 48 48 49 50 50 50 49 48 47 46 45 45 43 40 36 35 35 35 34 34 33 33 32 32 33 33 34 35 36 36 36 36 36 35 34 33 33 32 32 32 32 32 31 31 31 31 31 31 32 34
36 35 38 42 46 50 50 48 47 49 50 49 46 45 47 49 49 49 49 49 47 47 48 48 46 43 40 39 39 39 39 38 38 36 35 34 34 34 35 35 36 37 38 38 38 37 37 36 36 35 34 34 34 33 33 33 33 33 32 32 32 33

ECMWFFLT2_250_spd_048.txt.gz
Wind_Speed
81 81 81 81 81 82 83 83 83 85 85 87 89 91 93 91 86 83 79 76 72 69 65 60 57 56 55 54 53 53 52 52 52 52 52 51 49 48 46 45 43 42 40 39 39 39 39 39 40 41 40 38 35 31 28 27 26 27 29 30 29 28
80 80 81 81 82 83 84 83 83 84 85 87 88 89 90 87 83 79 76 72 68 64 61 57 55 54 53 52 51 51 51 51 50 49 46 43 40 38 37 38 38 39 38 37 37 37 38 40 42 41 40 37 35 31 29 28 27 28 30 30 30 28
78 78 79 80 80 81 82 82 81 82 83 84 84 84 84 82 79 75 72 69 65 61 58 56 54 53 53 52 50 49 49 49 47 43 40 38 36 35 36 37 37 38 37 36 36 37 39 41 41 40 38 37 35 32 30 30 30 30 31 32 31 29
75 75 75 76 76 76 77 78 78 78 79 79 79 79 78 77 75 72 70 67 64 60 58 56 55 54 53 51 49 48 48 46 43 39 37 36 34 35 36 37 37 36 36 36 37 38 40 40 40 39 39 38 36 35 33 32 32 33 34 33 32 30
71 70 70 71 71 71 73 74 74 75 75 75 76 75 75 74 73 71 68 65 63 61 59 57 55 53 52 51 49 48 47 43 40 38 38 37 36 37 37 37 36 36 36 36 38 40 41 41 41 41 41 41 39 38 36 36 35 35 35 35 33 31
66 65 65 67 68 68 70 71 72 72 73 73 73 72 72 72 71 70 67 65 63 61 60 58 56 54 53 50 49 48 45 41 40 40 40 41 41 40 39 38 37 37 37 37 39 41 42 43 43 44 44 43 42 41 39 39 38 37 36 35 34 31
64 63 63 65 67 67 68 69 69 70 71 71 71 70 71 71 70 68 66 64 62 61 61 59 57 55 53 50 48 46 42 39 38 39 41 43 45 42 41 40 40 39 39 40 41 42 44 45 46 46 46 45 45 44 43 41 40 38 36 35 33 31
63 62 62 64 65 66 67 67 67 67 68 69 69 70 70 69 68 66 64 63 62 62 61 59 56 55 53 51 48 44 40 38 36 38 39 40 43 44 44 44 42 42 43 43 44 46 47 48 48 47 47 47 47 47 45 44 41 38 36 34 33 31
60 59 60 62 63 64 65 65 65 66 66 67 67 68 67 67 67 65 64 62 61 61 59 57 55 54 53 51 49 46 44 42 40 41 41 40 43 44 45 45 45 46 48 50 51 51 51 49 48 48 47 48 48 48 46 44 41 38 36 35 33 31
55 56 58 60 61 62 62 62 63 63 63 63 64 64 64 65 65 64 63 62 61 60 59 57 55 54 53 52 51 50 49 46 44 45 49 51 49 47 48 50 52 54 55 56 56 55 53 51 49 48 47 47 47 47 45 43 40 37 37 36 33 31
52 53 55 57 58 59 59 60 60 60 60 60 60 61 61 62 62 62 62 61 60 59 58 56 55 54 54 53 53 52 50 48 45 44 51 56 55 54 57 59 60 59 56 53 53 53 52 50 48 47 46 46 46 45 44 41 39 38 37 35 32 31
50 51 52 53 55 56 56 57 57 57 57 57 57 58 59 60 60 60 59 59 58 57 57 56 56 54 54 53 52 51 50 49 46 45 49 54 57 58 59 57 54 51 49 48 48 48 48 47 46 45 45 45 45 45 43 40 39 39 37 35 33 32
48 51 52 51 51 52 53 53 52 52 53 54 54 55 56 57 57 56 56 55 55 55 54 53 53 52 50 50 49 48 48 48 48 47 48 50 50 49 48 46 44 44 45 46 46 45 46 46 46 46 45 45 44 43 41 39 39 40 39 37 35 34
48 50 51 50 49 49 50 49 49 51 53 54 54 53 52 52 53 52 52 51 50 50 49 48 48 47 45 44 44 43 42 41 40 39 38 38 39 39 40 41 44 46 46 46 45 45 46 47 47 46 44 43 41 39 38 38 38 39 39 38 37 37
47 49 49 48 48 48 47 46 49 53 53 52 51 48 48 48 47 46 44 43 43 43 42 42 41 40 39 37 36 35 34 32 31 31 33 35 37 38 41 44 46 47 47 46 46 46 46 46 46 44 41 40 38 36 35 36 37 38 39 39 39 38
40 43 45 46 46 46 46 47 48 51 50 48 46 45 43 41 39 37 35 35 35 35 34 33 33 33 32 30 30 30 30 30 31 33 36 38 40 41 43 45 46 45 46 46 46 46 46 44 42 40 38 37 36 35 35 36 37 39 40 40 40 39
37 40 41 42 43 43 43 44 45 45 44 42 41 40 37 35 33 32 31 31 31 31 30 29 29 28 27 26 27 29 29 31 33 35 37 40 42 44 45 45 44 44 43 44 44 44 43 40 39 37 35 35 34 34 35 35 37 39 40 41 41 40
45 44 42 42 41 40 39 40 40 40 39 37 35 34 33 32 32 31 30 30 30 29 28 27 25 24 24 25 27 29 31 32 34 36 39 42 44 44 44 44 43 42 41 41 41 40 39 37 36 34 33 32 32 33 34 35 37 39 39 40 41 41
49 46 45 44 42 40 39 37 36 35 34 33 31 30 30 30 30 30 30 29 27 26 25 24 23 23 24 26 28 30 32 34 36 39 41 43 43 43 43 42 41 39 38 37 37 36 34 33 33 33 32 31 31 32 34 35 37 38 39 40 41 41
52 49 46 45 43 41 38 35 33 32 30 28 27 26 26 26 26 26 26 25 24 23 22 22 23 25 26 29 30 32 34 36 38 40 42 42 42 42 42 40 38 36 35 34 33 32 29 30 32 32 33 33 33 34 36 37 38 38 39 40 41 41
55 51 47 44 42 39 35 30 26 23 22 21 21 21 22 22 22 22 22 22 23 23 23 24 26 28 30 32 34 36 37 39 41 42 42 43 43 42 41 38 36 33 32 30 29 28 26 27 29 30 33 36 36 37 38 39 41 41 41 42 42 42
55 52 47 43 39 36 34 31 26 21 18 18 20 21 22 22 22 22 23 25 26 27 28 29 30 32 34 35 37 39 41 42 43 44 44 44 43 42 40 37 34 32 30 28 26 26 25 25 27 29 32 37 38 39 39 40 41 42 42 43 43 43
55 52 49 45 40 36 34 33 31 28 24 22 23 24 26 28 29 30 31 32 33 33 34 34 35 37 38 39 40 41 43 44 45 45 45 44 43 42 40 37 34 31 29 27 25 25 23 24 27 29 31 35 37 38 39 39 39 40 42 42 43 43
55 53 51 47 44 40 35 34 34 32 30 27 27 30 32 34 36 37 38 39 39 39 39 39 40 41 41 42 43 44 45 45 45 45 45 44 42 41 39 36 33 30 28 26 25 24 23 23 24 26 29 32 34 35 38 40 41 42 42 42 42 43
54 53 51 48 45 43 40 38 37 36 34 33 34 37 38 40 42 42 43 43 43 44 44 44 44 44 44 45 45 46 46 46 45 45 44 43 42 41 39 36 33 30 28 26 24 24 24 23 24 26 27 30 32 32 35 39 41 44 45 44 43 44
50 50 50 48 46 45 45 44 42 41 40 39 41 42 43 44 46 46 47 47 47 47 46 47 47 46 46 46 47 47 47 46 46 45 43 42 41 40 38 36 33 30 28 26 24 23 23 23 25 26 27 29 32 33 35 38 41 44 46 47 47 47
47 47 47 47 46 46 48 48 47 46 45 44 45 46 46 47 49 50 50 50 50 49 48 48 48 46 46 47 48 48 48 48 47 46 44 42 39 38 37 36 33 30 28 25 24 23 22 23 23 25 26 28 31 34 36 38 40 43 45 46 47 48
44 45 45 45 45 46 48 51 52 52 51 50 49 50 50 51 53 54 54 53 52 50 49 49 48 48 47 48 48 48 48 48 48 47 45 42 38 36 35 34 32 29 28 25 23 22 22 22 22 23 24 25 26 28 30 32 34 36 39 41 43 44
42 43 44 45 45 45 46 49 53 56 57 57 56 55 55 55 57 58 58 57 54 52 51 50 50 49 49 48 48 48 48 48 47 45 43 41 38 35 34 32 30 28 27 26 24 23 22 21 21 22 22 23 23 24 24 26 28 30 32 34 36 38
41 42 42 44 45 47 48 48 50 53 57 59 60 61 61 60 61 61 60 58 56 53 52 51 51 50 49 48 48 48 48 46 44 42 40 38 36 34 33 30 28 27 27 26 25 24 22 22 21 21 22 22 22 22 23 23 24 26 27 28 30 31
34 34 35 39 42 44 47 49 51 52 54 56 58 60 61 61 61 61 59 58 57 55 54 53 52 51 50 49 48 47 46 44 41 39 37 35 34 33 31 29 27 26 26 26 26 25 24 23 22 21 21 22 22 22 23 23 23 24 25 25 26 27
34 34 37 41 43 43 45 47 50 52 54 55 56 57 59 59 60 60 59 58 57 56 55 53 52 51 50 49 48 46 43 40 38 36 34 33 32 31 29 27 26 26 26 26 27 26 25 24 23 22 22 21 22 22 22 23 23 23 24 24 25 25
38 38 41 43 45 46 47 47 48 51 54 56 57 58 59 59 59 59 58 57 56 54 53 52 51 51 49 48 46 44 40 36 34 34 33 33 32 30 28 26 25 25 25 26 26 27 27 26 25 24 23 22 22 22 22 22 22 23 23 23 24 24
33 34 37 42 45 46 46 46 47 49 52 54 56 57 58 58 58 57 55 54 53 52 51 50 50 49 48 46 43 41 38 34 33 33 33 32 32 30 29 27 25 25 24 24 25 26 27 28 28 27 26 24 23 23 23 23 22 22 23 23 24 24
29 32 37 42 45 46 46 45 44 45 47 49 52 53 53 53 53 52 50 49 49 48 47 48 48 47 46 45 43 41 39 36 34 33 32 32 32 31 30 28 26 26 25 25 25 26 27 28 29 30 29 28 27 25 25 24 24 24 24 24 24 24
27 32 36 40 43 45 46 46 46 46 46 47 48 50 50 50 49 48 47 47 46 45 45 45 45 45 45 44 44 43 42 40 39 37 36 35 34 32 31 29 28 27 27 27 27 28 28 29 29 30 31 32 31 29 28 27 26 26 25 25 25 26
30 32 34 37 40 43 44 45 47 47 48 48 49 49 48 49 49 49 48 46 45 44 43 43 43 43 43 43 44 44 44 43 43 42 41 40 38 36 34 32 30 30 30 31 32 33 33 33 33 33 33 33 33 33 32 30 29 28 27 27 27 27